Time,TemperatureF,DewpointF,PressureIn,WindDirection,WindDirectionDegrees,WindSpeedMPH,WindSpeedGustMPH,Humidity,HourlyPrecipIn,Conditions,Clouds,dailyrainin,SoftwareType,DateUTC
2013-02-26 00:00:00,29.5,18.8,29.96,SW,225,3.1,4.9,64,0.00,,,0.00,WUHU216HW,2013-02-26 05:00:00,
2013-02-26 00:05:00,29.0,17.9,29.96,SSW,203,1.8,3.1,63,0.00,,,0.00,WUHU216HW,2013-02-26 05:05:00,
2013-02-26 00:06:00,29.0,18.3,29.95,SW,225,2.0,3.1,64,0.00,,,0.00,WUHU216HW,2013-02-26 05:06:00,
2013-02-26 00:10:00,28.8,18.9,29.95,SSW,203,3.4,3.4,66,0.00,,,0.00,WUHU216HW,2013-02-26 05:10:00,
2013-02-26 00:11:00,28.8,18.9,29.95,SW,225,3.1,3.4,66,0.00,,,0.00,WUHU216HW,2013-02-26 05:11:00,
2013-02-26 00:12:00,28.8,18.9,29.95,SW,225,3.1,3.4,66,0.00,,,0.00,WUHU216HW,2013-02-26 05:12:00,
2013-02-26 00:15:00,28.8,18.9,29.96,SSW,203,3.6,3.8,66,0.00,,,0.00,WUHU216HW,2013-02-26 05:15:00,
2013-02-26 00:17:00,28.8,18.9,29.96,SSW,203,4.7,4.7,66,0.00,,,0.00,WUHU216HW,2013-02-26 05:17:00,
2013-02-26 00:18:00,28.8,18.9,29.96,SW,225,4.3,4.7,66,0.00,,,0.00,WUHU216HW,2013-02-26 05:18:00,
2013-02-26 00:19:00,28.6,18.7,29.96,SW,225,4.5,4.7,66,0.00,,,0.00,WUHU216HW,2013-02-26 05:19:00,
2013-02-26 00:20:00,28.6,18.7,29.96,SW,225,4.9,4.9,66,0.00,,,0.00,WUHU216HW,2013-02-26 05:20:00,
2013-02-26 00:22:00,28.4,18.9,29.96,SW,225,4.0,4.9,67,0.00,,,0.00,WUHU216HW,2013-02-26 05:22:00,
2013-02-26 00:24:00,28.3,19.1,29.96,SW,225,5.1,5.1,68,0.00,,,0.00,WUHU216HW,2013-02-26 05:24:00,
2013-02-26 00:26:00,28.4,19.3,29.95,SW,225,4.7,5.4,68,0.00,,,0.00,WUHU216HW,2013-02-26 05:26:00,
2013-02-26 00:28:00,28.6,19.1,29.95,SW,225,4.7,5.4,67,0.00,,,0.00,WUHU216HW,2013-02-26 05:28:00,
2013-02-26 00:29:00,28.6,19.1,29.96,SW,225,4.3,5.4,67,0.00,,,0.00,WUHU216HW,2013-02-26 05:29:00,
2013-02-26 00:31:00,28.4,18.9,29.96,SW,225,4.5,5.4,67,0.00,,,0.00,WUHU216HW,2013-02-26 05:31:00,
2013-02-26 00:32:00,28.4,19.3,29.96,SW,225,4.3,5.4,68,0.00,,,0.00,WUHU216HW,2013-02-26 05:32:00,
2013-02-26 00:34:00,28.3,19.1,29.96,SW,225,4.3,5.4,68,0.00,,,0.00,WUHU216HW,2013-02-26 05:34:00,
2013-02-26 00:35:00,28.3,19.1,29.96,SW,225,4.0,5.1,68,0.00,,,0.00,WUHU216HW,2013-02-26 05:35:00,
2013-02-26 00:37:00,28.4,19.3,29.96,SW,225,4.0,5.1,68,0.00,,,0.00,WUHU216HW,2013-02-26 05:37:00,
2013-02-26 00:38:00,28.3,19.1,29.96,SW,225,3.4,5.1,68,0.00,,,0.00,WUHU216HW,2013-02-26 05:38:00,
2013-02-26 00:39:00,28.3,19.1,29.96,SW,225,4.9,5.1,68,0.00,,,0.00,WUHU216HW,2013-02-26 05:39:00,
2013-02-26 00:40:00,28.3,19.1,29.96,WSW,248,5.4,5.4,68,0.00,,,0.00,WUHU216HW,2013-02-26 05:40:00,
2013-02-26 00:42:00,28.8,18.9,29.96,WSW,248,4.0,5.4,66,0.00,,,0.00,WUHU216HW,2013-02-26 05:42:00,
2013-02-26 00:43:00,29.0,19.0,29.96,SW,225,2.2,5.4,66,0.00,,,0.00,WUHU216HW,2013-02-26 05:43:00,
2013-02-26 00:45:00,28.8,18.9,29.96,SW,225,3.4,5.4,66,0.00,,,0.00,WUHU216HW,2013-02-26 05:45:00,
2013-02-26 00:47:00,28.4,18.5,29.97,WSW,248,4.5,5.4,66,0.00,,,0.00,WUHU216HW,2013-02-26 05:47:00,
2013-02-26 00:49:00,28.6,18.7,29.97,West,270,3.4,5.4,66,0.00,,,0.00,WUHU216HW,2013-02-26 05:49:00,
2013-02-26 00:50:00,28.8,18.9,29.97,SW,225,3.1,4.7,66,0.00,,,0.00,WUHU216HW,2013-02-26 05:50:00,
2013-02-26 00:51:00,28.8,18.9,29.97,SW,225,3.1,4.7,66,0.00,,,0.00,WUHU216HW,2013-02-26 05:51:00,
2013-02-26 00:52:00,29.0,19.0,29.97,SW,225,2.7,4.7,66,0.00,,,0.00,WUHU216HW,2013-02-26 05:52:00,
2013-02-26 00:56:00,28.3,19.1,29.98,SW,225,5.4,5.4,68,0.00,,,0.00,WUHU216HW,2013-02-26 05:56:00,
2013-02-26 00:57:00,28.1,19.3,29.98,SW,225,4.5,5.4,69,0.00,,,0.00,WUHU216HW,2013-02-26 05:57:00,
2013-02-26 00:58:00,28.1,19.3,29.98,SW,225,4.9,5.4,69,0.00,,,0.00,WUHU216HW,2013-02-26 05:58:00,
2013-02-26 01:01:00,28.3,19.4,29.98,SW,225,3.8,5.4,69,0.00,,,0.00,WUHU216HW,2013-02-26 06:01:00,
2013-02-26 01:02:00,28.1,19.3,29.98,SW,225,3.1,5.4,69,0.00,,,0.00,WUHU216HW,2013-02-26 06:02:00,
2013-02-26 01:04:00,28.1,19.3,29.98,SW,225,2.9,5.4,69,0.00,,,0.00,WUHU216HW,2013-02-26 06:04:00,
2013-02-26 01:07:00,27.7,19.3,29.97,SW,225,3.1,4.9,70,0.00,,,0.00,WUHU216HW,2013-02-26 06:07:00,
2013-02-26 01:08:00,27.7,19.3,29.98,SW,225,3.4,4.7,70,0.00,,,0.00,WUHU216HW,2013-02-26 06:08:00,
2013-02-26 01:09:00,27.7,19.3,29.97,SW,225,2.7,4.7,70,0.00,,,0.00,WUHU216HW,2013-02-26 06:09:00,
2013-02-26 01:13:00,27.7,19.3,29.98,SW,225,3.8,4.0,70,0.00,,,0.00,WUHU216HW,2013-02-26 06:13:00,
2013-02-26 01:14:00,27.9,19.4,29.98,SW,225,3.4,4.0,70,0.00,,,0.00,WUHU216HW,2013-02-26 06:14:00,
2013-02-26 01:15:00,27.9,19.4,29.98,West,270,2.7,3.8,70,0.00,,,0.00,WUHU216HW,2013-02-26 06:15:00,
2013-02-26 01:19:00,27.7,19.3,29.98,SSW,203,2.5,3.8,70,0.00,,,0.00,WUHU216HW,2013-02-26 06:19:00,
2013-02-26 01:22:00,27.5,19.4,29.98,SSW,203,1.3,3.8,71,0.00,,,0.00,WUHU216HW,2013-02-26 06:22:00,
2013-02-26 01:24:00,27.4,19.2,29.98,SW,225,3.6,3.6,71,0.00,,,0.00,WUHU216HW,2013-02-26 06:24:00,
2013-02-26 01:25:00,27.4,19.2,29.98,SW,225,3.1,3.6,71,0.00,,,0.00,WUHU216HW,2013-02-26 06:25:00,
2013-02-26 01:28:00,27.7,19.5,29.98,SW,225,3.4,4.0,71,0.00,,,0.00,WUHU216HW,2013-02-26 06:28:00,
2013-02-26 01:30:00,27.9,19.4,29.98,SW,225,3.6,4.0,70,0.00,,,0.00,WUHU216HW,2013-02-26 06:30:00,
2013-02-26 01:33:00,28.3,19.8,29.98,SW,225,3.4,4.0,70,0.00,,,0.00,WUHU216HW,2013-02-26 06:33:00,
2013-02-26 01:35:00,28.3,19.8,29.98,SW,225,3.1,4.0,70,0.00,,,0.00,WUHU216HW,2013-02-26 06:35:00,
2013-02-26 01:36:00,28.3,19.8,29.98,SW,225,3.1,4.0,70,0.00,,,0.00,WUHU216HW,2013-02-26 06:36:00,
2013-02-26 01:39:00,27.9,19.4,29.98,SW,225,2.7,3.6,70,0.00,,,0.00,WUHU216HW,2013-02-26 06:39:00,
2013-02-26 01:40:00,27.7,19.5,29.98,SW,225,3.1,3.4,71,0.00,,,0.00,WUHU216HW,2013-02-26 06:40:00,
2013-02-26 01:41:00,27.7,19.5,29.98,SW,225,2.9,3.4,71,0.00,,,0.00,WUHU216HW,2013-02-26 06:41:00,
2013-02-26 01:45:00,27.7,19.5,29.98,SW,225,2.5,3.1,71,0.00,,,0.00,WUHU216HW,2013-02-26 06:45:00,
2013-02-26 01:46:00,27.7,19.5,29.98,SSW,203,1.6,3.1,71,0.00,,,0.00,WUHU216HW,2013-02-26 06:46:00,
2013-02-26 01:47:00,27.7,19.5,29.98,SSW,203,1.8,3.1,71,0.00,,,0.00,WUHU216HW,2013-02-26 06:47:00,
2013-02-26 01:50:00,27.5,19.7,29.97,SW,225,2.5,3.1,72,0.00,,,0.00,WUHU216HW,2013-02-26 06:50:00,
2013-02-26 01:51:00,27.5,19.7,29.97,SSW,203,2.5,3.1,72,0.00,,,0.00,WUHU216HW,2013-02-26 06:51:00,
2013-02-26 01:52:00,27.5,19.7,29.97,SW,225,2.7,3.1,72,0.00,,,0.00,WUHU216HW,2013-02-26 06:52:00,
2013-02-26 01:54:00,27.5,19.7,29.97,SW,225,2.5,2.7,72,0.00,,,0.00,WUHU216HW,2013-02-26 06:54:00,
2013-02-26 01:57:00,27.7,19.5,29.97,SW,225,2.0,2.7,71,0.00,,,0.00,WUHU216HW,2013-02-26 06:57:00,
2013-02-26 01:58:00,27.7,19.5,29.96,SW,225,1.8,2.7,71,0.00,,,0.00,WUHU216HW,2013-02-26 06:58:00,
2013-02-26 01:59:00,27.9,19.7,29.96,SW,225,1.3,2.7,71,0.00,,,0.00,WUHU216HW,2013-02-26 06:59:00,
2013-02-26 02:02:00,28.1,19.6,29.96,SW,225,1.8,2.7,70,0.00,,,0.00,WUHU216HW,2013-02-26 07:02:00,
2013-02-26 02:03:00,28.3,19.8,29.96,WSW,248,1.8,2.5,70,0.00,,,0.00,WUHU216HW,2013-02-26 07:03:00,
2013-02-26 02:06:00,28.4,20.0,29.96,SW,225,1.3,2.2,70,0.00,,,0.00,WUHU216HW,2013-02-26 07:06:00,
2013-02-26 02:07:00,28.4,19.6,29.96,SW,225,0.9,2.2,69,0.00,,,0.00,WUHU216HW,2013-02-26 07:07:00,
2013-02-26 02:09:00,28.6,19.8,29.96,SW,225,1.6,2.2,69,0.00,,,0.00,WUHU216HW,2013-02-26 07:09:00,
2013-02-26 02:11:00,28.8,19.6,29.96,SSW,203,2.0,2.0,68,0.00,,,0.00,WUHU216HW,2013-02-26 07:11:00,
2013-02-26 02:12:00,28.8,19.6,29.96,SSW,203,1.8,2.0,68,0.00,,,0.00,WUHU216HW,2013-02-26 07:12:00,
2013-02-26 02:14:00,28.8,19.6,29.96,SSW,203,1.1,2.0,68,0.00,,,0.00,WUHU216HW,2013-02-26 07:14:00,
2013-02-26 02:16:00,28.8,19.6,29.96,SW,225,1.8,2.0,68,0.00,,,0.00,WUHU216HW,2013-02-26 07:16:00,
2013-02-26 02:19:00,28.8,19.6,29.97,SW,225,2.7,2.9,68,0.00,,,0.00,WUHU216HW,2013-02-26 07:19:00,
2013-02-26 02:20:00,28.8,19.6,29.97,SW,225,2.5,2.9,68,0.00,,,0.00,WUHU216HW,2013-02-26 07:20:00,
2013-02-26 02:21:00,28.8,19.6,29.96,SW,225,2.7,2.9,68,0.00,,,0.00,WUHU216HW,2013-02-26 07:21:00,
2013-02-26 02:25:00,29.0,19.7,29.96,SW,225,2.5,2.9,68,0.00,,,0.00,WUHU216HW,2013-02-26 07:25:00,
2013-02-26 02:26:00,29.0,19.7,29.96,WSW,248,2.5,2.9,68,0.00,,,0.00,WUHU216HW,2013-02-26 07:26:00,
2013-02-26 02:27:00,29.0,19.4,29.95,SW,225,2.0,2.9,67,0.00,,,0.00,WUHU216HW,2013-02-26 07:27:00,
2013-02-26 02:30:00,29.2,19.5,29.95,SW,225,1.3,2.9,67,0.00,,,0.00,WUHU216HW,2013-02-26 07:30:00,
2013-02-26 02:32:00,29.2,19.9,29.95,SSW,203,2.2,2.9,68,0.00,,,0.00,WUHU216HW,2013-02-26 07:32:00,
2013-02-26 02:36:00,29.0,19.7,29.95,SSW,203,1.1,2.5,68,0.00,,,0.00,WUHU216HW,2013-02-26 07:36:00,
2013-02-26 02:37:00,28.8,19.6,29.95,SSW,203,1.1,2.5,68,0.00,,,0.00,WUHU216HW,2013-02-26 07:37:00,
2013-02-26 02:38:00,28.8,19.6,29.95,SSW,203,1.6,2.5,68,0.00,,,0.00,WUHU216HW,2013-02-26 07:38:00,
2013-02-26 02:42:00,28.6,19.8,29.94,SW,225,1.1,2.0,69,0.00,,,0.00,WUHU216HW,2013-02-26 07:42:00,
2013-02-26 02:43:00,28.4,19.6,29.94,SW,225,1.6,1.8,69,0.00,,,0.00,WUHU216HW,2013-02-26 07:43:00,
2013-02-26 02:47:00,28.1,19.6,29.94,SSW,203,0.9,2.0,70,0.00,,,0.00,WUHU216HW,2013-02-26 07:47:00,
2013-02-26 02:48:00,28.1,19.6,29.94,SSW,203,1.1,2.0,70,0.00,,,0.00,WUHU216HW,2013-02-26 07:48:00,
2013-02-26 02:49:00,28.3,19.8,29.94,SW,225,1.8,2.0,70,0.00,,,0.00,WUHU216HW,2013-02-26 07:49:00,
2013-02-26 02:52:00,28.8,19.6,29.94,SW,225,2.7,2.7,68,0.00,,,0.00,WUHU216HW,2013-02-26 07:52:00,
2013-02-26 02:53:00,29.0,19.4,29.94,SW,225,2.5,2.7,67,0.00,,,0.00,WUHU216HW,2013-02-26 07:53:00,
2013-02-26 02:54:00,29.2,19.2,29.93,SW,225,2.0,2.7,66,0.00,,,0.00,WUHU216HW,2013-02-26 07:54:00,
2013-02-26 02:58:00,29.7,19.7,29.94,SW,225,2.5,2.7,66,0.00,,,0.00,WUHU216HW,2013-02-26 07:58:00,
2013-02-26 02:59:00,29.7,19.7,29.93,SW,225,2.2,2.7,66,0.00,,,0.00,WUHU216HW,2013-02-26 07:59:00,
2013-02-26 03:00:00,29.9,19.8,29.93,SW,225,2.2,2.7,66,0.00,,,0.00,WUHU216HW,2013-02-26 08:00:00,
2013-02-26 03:04:00,29.9,19.4,29.94,SW,225,2.7,2.9,65,0.00,,,0.00,WUHU216HW,2013-02-26 08:04:00,
2013-02-26 03:05:00,29.9,19.4,29.94,SW,225,2.7,2.9,65,0.00,,,0.00,WUHU216HW,2013-02-26 08:05:00,
2013-02-26 03:09:00,29.9,19.8,29.94,SW,225,2.5,3.8,66,0.00,,,0.00,WUHU216HW,2013-02-26 08:09:00,
2013-02-26 03:10:00,29.9,19.8,29.93,SSW,203,1.8,3.8,66,0.00,,,0.00,WUHU216HW,2013-02-26 08:10:00,
2013-02-26 03:14:00,29.5,19.5,29.95,SW,225,3.8,3.8,66,0.00,,,0.00,WUHU216HW,2013-02-26 08:14:00,
2013-02-26 03:15:00,29.5,19.5,29.94,SSW,203,2.9,3.8,66,0.00,,,0.00,WUHU216HW,2013-02-26 08:15:00,
2013-02-26 03:16:00,29.5,19.5,29.94,SSW,203,2.9,3.8,66,0.00,,,0.00,WUHU216HW,2013-02-26 08:16:00,
2013-02-26 03:20:00,29.2,19.5,29.94,SSW,203,2.5,3.8,67,0.00,,,0.00,WUHU216HW,2013-02-26 08:20:00,
2013-02-26 03:22:00,29.0,19.4,29.93,SW,225,2.0,3.8,67,0.00,,,0.00,WUHU216HW,2013-02-26 08:22:00,
2013-02-26 03:25:00,29.2,19.5,29.94,SW,225,2.5,2.7,67,0.00,,,0.00,WUHU216HW,2013-02-26 08:25:00,
2013-02-26 03:26:00,29.2,19.9,29.93,SSW,203,1.8,2.7,68,0.00,,,0.00,WUHU216HW,2013-02-26 08:26:00,
2013-02-26 03:28:00,29.0,19.7,29.93,SSW,203,2.2,2.7,68,0.00,,,0.00,WUHU216HW,2013-02-26 08:28:00,
2013-02-26 03:30:00,28.8,19.6,29.93,SSW,203,2.0,2.7,68,0.00,,,0.00,WUHU216HW,2013-02-26 08:30:00,
2013-02-26 03:31:00,28.8,19.6,29.93,SW,225,2.5,2.7,68,0.00,,,0.00,WUHU216HW,2013-02-26 08:31:00,
2013-02-26 03:34:00,29.0,19.7,29.93,SW,225,2.7,2.7,68,0.00,,,0.00,WUHU216HW,2013-02-26 08:34:00,
2013-02-26 03:36:00,29.2,19.9,29.93,SW,225,2.7,2.7,68,0.00,,,0.00,WUHU216HW,2013-02-26 08:36:00,
2013-02-26 03:37:00,29.2,19.9,29.93,SW,225,2.7,2.7,68,0.00,,,0.00,WUHU216HW,2013-02-26 08:37:00,
2013-02-26 03:39:00,29.5,19.9,29.93,SW,225,2.5,2.7,67,0.00,,,0.00,WUHU216HW,2013-02-26 08:39:00,
2013-02-26 03:41:00,29.5,19.9,29.93,SW,225,2.2,2.7,67,0.00,,,0.00,WUHU216HW,2013-02-26 08:41:00,
2013-02-26 03:42:00,29.5,19.9,29.93,SW,225,2.2,2.7,67,0.00,,,0.00,WUHU216HW,2013-02-26 08:42:00,
2013-02-26 03:43:00,29.5,19.9,29.93,SW,225,2.7,3.1,67,0.00,,,0.00,WUHU216HW,2013-02-26 08:43:00,
2013-02-26 03:44:00,29.7,19.7,29.93,SW,225,2.7,3.1,66,0.00,,,0.00,WUHU216HW,2013-02-26 08:44:00,
2013-02-26 03:46:00,29.9,19.8,29.92,SW,225,2.7,3.1,66,0.00,,,0.00,WUHU216HW,2013-02-26 08:46:00,
2013-02-26 03:47:00,29.9,19.8,29.92,SW,225,2.5,3.1,66,0.00,,,0.00,WUHU216HW,2013-02-26 08:47:00,
2013-02-26 03:49:00,29.9,19.8,29.92,SW,225,2.7,3.1,66,0.00,,,0.00,WUHU216HW,2013-02-26 08:49:00,
2013-02-26 03:51:00,29.9,19.8,29.92,SW,225,3.1,3.1,66,0.00,,,0.00,WUHU216HW,2013-02-26 08:51:00,
2013-02-26 03:52:00,29.9,19.8,29.92,SW,225,2.7,3.1,66,0.00,,,0.00,WUHU216HW,2013-02-26 08:52:00,
2013-02-26 03:55:00,29.7,20.1,29.92,SW,225,2.9,3.1,67,0.00,,,0.00,WUHU216HW,2013-02-26 08:55:00,
2013-02-26 03:57:00,29.7,19.7,29.91,SSW,203,2.7,3.1,66,0.00,,,0.00,WUHU216HW,2013-02-26 08:57:00,
2013-02-26 04:00:00,29.9,19.8,29.92,SW,225,3.1,3.1,66,0.00,,,0.00,WUHU216HW,2013-02-26 09:00:00,
2013-02-26 04:03:00,30.2,20.2,29.92,SSW,203,2.5,3.1,66,0.00,,,0.00,WUHU216HW,2013-02-26 09:03:00,
2013-02-26 04:05:00,30.4,20.0,29.92,SW,225,2.7,3.1,65,0.00,,,0.00,WUHU216HW,2013-02-26 09:05:00,
2013-02-26 04:06:00,30.6,20.2,29.92,SSW,203,2.5,3.1,65,0.00,,,0.00,WUHU216HW,2013-02-26 09:06:00,
2013-02-26 04:08:00,30.6,19.8,29.91,SW,225,2.5,3.1,64,0.00,,,0.00,WUHU216HW,2013-02-26 09:08:00,
2013-02-26 04:10:00,30.6,19.8,29.91,SSW,203,2.0,2.7,64,0.00,,,0.00,WUHU216HW,2013-02-26 09:10:00,
2013-02-26 04:12:00,30.6,19.8,29.91,SSW,203,2.0,2.7,64,0.00,,,0.00,WUHU216HW,2013-02-26 09:12:00,
2013-02-26 04:13:00,30.6,20.2,29.91,SSW,203,1.8,2.7,65,0.00,,,0.00,WUHU216HW,2013-02-26 09:13:00,
2013-02-26 04:14:00,30.6,20.2,29.91,SW,225,1.3,2.7,65,0.00,,,0.00,WUHU216HW,2013-02-26 09:14:00,
2013-02-26 04:16:00,30.6,19.8,29.91,SSW,203,3.1,3.1,64,0.00,,,0.00,WUHU216HW,2013-02-26 09:16:00,
2013-02-26 04:17:00,30.6,19.8,29.91,SW,225,2.5,3.1,64,0.00,,,0.00,WUHU216HW,2013-02-26 09:17:00,
2013-02-26 04:18:00,30.6,19.8,29.91,SW,225,3.1,3.1,64,0.00,,,0.00,WUHU216HW,2013-02-26 09:18:00,
2013-02-26 04:19:00,30.6,19.8,29.91,SW,225,2.9,3.1,64,0.00,,,0.00,WUHU216HW,2013-02-26 09:19:00,
2013-02-26 04:21:00,30.8,19.6,29.92,SW,225,3.4,3.4,63,0.00,,,0.00,WUHU216HW,2013-02-26 09:21:00,
2013-02-26 04:24:00,30.6,19.8,29.92,SW,225,3.6,4.0,64,0.00,,,0.00,WUHU216HW,2013-02-26 09:24:00,
2013-02-26 04:26:00,30.6,20.2,29.92,SW,225,3.6,4.0,65,0.00,,,0.00,WUHU216HW,2013-02-26 09:26:00,
2013-02-26 04:28:00,30.2,20.2,29.93,SW,225,4.0,4.0,66,0.00,,,0.00,WUHU216HW,2013-02-26 09:28:00,
2013-02-26 04:29:00,30.1,20.0,29.93,SW,225,3.8,4.0,66,0.00,,,0.00,WUHU216HW,2013-02-26 09:29:00,
2013-02-26 04:31:00,29.9,20.2,29.93,SW,225,3.1,4.0,67,0.00,,,0.00,WUHU216HW,2013-02-26 09:31:00,
2013-02-26 04:33:00,29.5,20.3,29.92,SSW,203,3.1,4.0,68,0.00,,,0.00,WUHU216HW,2013-02-26 09:33:00,
2013-02-26 04:34:00,29.5,20.3,29.92,SSW,203,2.5,4.0,68,0.00,,,0.00,WUHU216HW,2013-02-26 09:34:00,
2013-02-26 04:36:00,29.3,20.4,29.92,SSW,203,3.1,4.0,69,0.00,,,0.00,WUHU216HW,2013-02-26 09:36:00,
2013-02-26 04:39:00,29.3,20.4,29.92,SW,225,2.5,3.4,69,0.00,,,0.00,WUHU216HW,2013-02-26 09:39:00,
2013-02-26 04:40:00,29.3,20.8,29.92,SW,225,2.5,3.4,70,0.00,,,0.00,WUHU216HW,2013-02-26 09:40:00,
2013-02-26 04:41:00,29.3,20.8,29.92,SW,225,2.5,3.4,70,0.00,,,0.00,WUHU216HW,2013-02-26 09:41:00,
2013-02-26 04:44:00,29.3,20.8,29.92,SSW,203,2.5,3.1,70,0.00,,,0.00,WUHU216HW,2013-02-26 09:44:00,
2013-02-26 04:45:00,29.2,20.6,29.92,SW,225,1.6,3.1,70,0.00,,,0.00,WUHU216HW,2013-02-26 09:45:00,
2013-02-26 04:46:00,29.2,20.6,29.92,South,180,1.8,2.5,70,0.00,,,0.00,WUHU216HW,2013-02-26 09:46:00,
2013-02-26 04:48:00,29.3,20.8,29.92,South,180,0.7,2.5,70,0.00,,,0.00,WUHU216HW,2013-02-26 09:48:00,
2013-02-26 04:50:00,29.2,21.0,29.92,South,180,2.5,2.5,71,0.00,,,0.00,WUHU216HW,2013-02-26 09:50:00,
2013-02-26 04:52:00,29.2,21.0,29.92,SW,225,4.9,4.9,71,0.00,,,0.00,WUHU216HW,2013-02-26 09:52:00,
2013-02-26 04:55:00,29.2,21.0,29.93,SW,225,6.3,6.3,71,0.00,,,0.00,WUHU216HW,2013-02-26 09:55:00,
2013-02-26 04:58:00,29.2,21.6,29.92,SW,225,4.3,6.3,73,0.00,,,0.00,WUHU216HW,2013-02-26 09:58:00,
2013-02-26 05:00:00,29.2,21.0,29.92,WSW,248,4.0,6.7,71,0.00,,,0.00,WUHU216HW,2013-02-26 10:00:00,
2013-02-26 05:01:00,29.2,21.0,29.92,WSW,248,4.0,6.7,71,0.00,,,0.00,WUHU216HW,2013-02-26 10:01:00,
2013-02-26 05:03:00,29.9,21.2,29.92,SSW,203,1.8,6.7,70,0.00,,,0.00,WUHU216HW,2013-02-26 10:03:00,
2013-02-26 05:05:00,29.9,21.2,29.92,SSW,203,2.7,6.7,70,0.00,,,0.00,WUHU216HW,2013-02-26 10:05:00,
2013-02-26 05:06:00,30.1,21.4,29.91,South,180,0.9,6.7,70,0.00,,,0.00,WUHU216HW,2013-02-26 10:06:00,
2013-02-26 05:07:00,29.9,21.2,29.91,South,180,1.1,6.7,70,0.00,,,0.00,WUHU216HW,2013-02-26 10:07:00,
2013-02-26 05:08:00,29.9,21.2,29.92,South,180,1.6,6.7,70,0.00,,,0.00,WUHU216HW,2013-02-26 10:08:00,
2013-02-26 05:11:00,29.7,21.2,29.91,SW,225,1.1,4.9,70,0.00,,,0.00,WUHU216HW,2013-02-26 10:11:00,
2013-02-26 05:12:00,29.7,21.2,29.92,SW,225,1.1,4.9,70,0.00,,,0.00,WUHU216HW,2013-02-26 10:12:00,
2013-02-26 05:13:00,29.7,21.4,29.92,SW,225,2.5,4.9,71,0.00,,,0.00,WUHU216HW,2013-02-26 10:13:00,
2013-02-26 05:17:00,29.5,21.9,29.92,West,270,1.6,2.5,73,0.00,,,0.00,WUHU216HW,2013-02-26 10:17:00,
2013-02-26 05:18:00,29.5,21.9,29.92,West,270,1.6,2.5,73,0.00,,,0.00,WUHU216HW,2013-02-26 10:18:00,
2013-02-26 05:19:00,29.3,21.1,29.92,SSW,203,1.1,2.5,71,0.00,,,0.00,WUHU216HW,2013-02-26 10:19:00,
2013-02-26 05:22:00,29.3,21.8,29.92,SW,225,2.2,2.5,73,0.00,,,0.00,WUHU216HW,2013-02-26 10:22:00,
2013-02-26 05:23:00,29.3,21.8,29.92,SW,225,2.2,2.5,73,0.00,,,0.00,WUHU216HW,2013-02-26 10:23:00,
2013-02-26 05:25:00,29.3,21.1,29.92,West,270,5.4,5.6,71,0.00,,,0.00,WUHU216HW,2013-02-26 10:25:00,
2013-02-26 05:28:00,29.7,21.2,29.92,West,270,3.8,5.6,70,0.00,,,0.00,WUHU216HW,2013-02-26 10:28:00,
2013-02-26 05:29:00,29.9,21.2,29.92,SE,135,1.1,5.6,70,0.00,,,0.00,WUHU216HW,2013-02-26 10:29:00,
2013-02-26 05:30:00,29.9,21.2,29.92,SE,135,1.3,5.6,70,0.00,,,0.00,WUHU216HW,2013-02-26 10:30:00,
2013-02-26 05:35:00,30.1,21.4,29.92,SW,225,3.4,5.4,70,0.00,,,0.00,WUHU216HW,2013-02-26 10:35:00,
2013-02-26 05:40:00,29.9,21.2,29.92,SSW,203,2.7,4.3,70,0.00,,,0.00,WUHU216HW,2013-02-26 10:40:00,
2013-02-26 05:41:00,29.9,21.2,29.92,SSW,203,1.1,4.3,70,0.00,,,0.00,WUHU216HW,2013-02-26 10:41:00,
2013-02-26 05:46:00,29.7,21.8,29.92,SE,135,2.2,4.3,72,0.00,,,0.00,WUHU216HW,2013-02-26 10:46:00,
2013-02-26 05:47:00,29.5,21.6,29.92,SW,225,1.1,4.3,72,0.00,,,0.00,WUHU216HW,2013-02-26 10:47:00,
2013-02-26 05:48:00,29.5,21.2,29.92,SSW,203,1.3,4.3,71,0.00,,,0.00,WUHU216HW,2013-02-26 10:48:00,
2013-02-26 05:51:00,29.3,21.1,29.92,SSE,158,1.1,3.1,71,0.00,,,0.00,WUHU216HW,2013-02-26 10:51:00,
2013-02-26 05:52:00,29.3,21.1,29.92,SSE,158,0.4,3.1,71,0.00,,,0.00,WUHU216HW,2013-02-26 10:52:00,
2013-02-26 05:53:00,29.3,21.1,29.92,SSE,158,0.4,3.1,71,0.00,,,0.00,WUHU216HW,2013-02-26 10:53:00,
2013-02-26 05:56:00,29.5,21.6,29.93,SSW,203,3.4,3.4,72,0.00,,,0.00,WUHU216HW,2013-02-26 10:56:00,
2013-02-26 05:58:00,29.5,21.9,29.93,SSW,203,4.0,4.0,73,0.00,,,0.00,WUHU216HW,2013-02-26 10:58:00,
2013-02-26 05:59:00,29.5,21.9,29.93,SSW,203,2.9,4.0,73,0.00,,,0.00,WUHU216HW,2013-02-26 10:59:00,
2013-02-26 06:02:00,29.2,21.6,29.93,SW,225,4.0,4.0,73,0.00,,,0.00,WUHU216HW,2013-02-26 11:02:00,
2013-02-26 06:03:00,29.2,21.6,29.93,SW,225,4.5,4.5,73,0.00,,,0.00,WUHU216HW,2013-02-26 11:03:00,
2013-02-26 06:04:00,29.3,21.4,29.93,West,270,3.6,4.5,72,0.00,,,0.00,WUHU216HW,2013-02-26 11:04:00,
2013-02-26 06:07:00,29.5,21.9,29.93,SSW,203,1.1,4.5,73,0.00,,,0.00,WUHU216HW,2013-02-26 11:07:00,
2013-02-26 06:08:00,29.5,21.6,29.93,SSW,203,1.1,4.5,72,0.00,,,0.00,WUHU216HW,2013-02-26 11:08:00,
2013-02-26 06:09:00,29.5,21.6,29.93,South,180,1.6,4.5,72,0.00,,,0.00,WUHU216HW,2013-02-26 11:09:00,
2013-02-26 06:10:00,29.5,21.6,29.93,South,180,1.6,4.5,72,0.00,,,0.00,WUHU216HW,2013-02-26 11:10:00,
2013-02-26 06:12:00,29.3,21.4,29.93,SW,225,0.9,4.5,72,0.00,,,0.00,WUHU216HW,2013-02-26 11:12:00,
2013-02-26 06:14:00,29.5,21.2,29.93,SSW,203,1.1,3.6,71,0.00,,,0.00,WUHU216HW,2013-02-26 11:14:00,
2013-02-26 06:15:00,29.5,21.2,29.92,SSE,158,2.0,2.2,71,0.00,,,0.00,WUHU216HW,2013-02-26 11:15:00,
2013-02-26 06:19:00,29.7,21.4,29.93,SW,225,3.4,3.4,71,0.00,,,0.00,WUHU216HW,2013-02-26 11:19:00,
2013-02-26 06:20:00,29.7,21.4,29.92,SW,225,2.7,3.4,71,0.00,,,0.00,WUHU216HW,2013-02-26 11:20:00,
2013-02-26 06:21:00,29.9,21.6,29.93,SSW,203,1.8,3.4,71,0.00,,,0.00,WUHU216HW,2013-02-26 11:21:00,
2013-02-26 06:24:00,29.7,21.8,29.92,SSW,203,2.5,3.4,72,0.00,,,0.00,WUHU216HW,2013-02-26 11:24:00,
2013-02-26 06:25:00,29.9,21.6,29.92,SSW,203,2.0,3.4,71,0.00,,,0.00,WUHU216HW,2013-02-26 11:25:00,
2013-02-26 06:26:00,29.9,21.6,29.92,SSW,203,2.0,3.4,71,0.00,,,0.00,WUHU216HW,2013-02-26 11:26:00,
2013-02-26 06:27:00,29.7,21.8,29.92,SSW,203,1.3,3.4,72,0.00,,,0.00,WUHU216HW,2013-02-26 11:27:00,
2013-02-26 06:30:00,29.7,21.8,29.92,SSW,203,0.9,2.5,72,0.00,,,0.00,WUHU216HW,2013-02-26 11:30:00,
2013-02-26 06:31:00,29.7,21.8,29.92,SSW,203,0.9,2.5,72,0.00,,,0.00,WUHU216HW,2013-02-26 11:31:00,
2013-02-26 06:32:00,29.7,21.8,29.92,WSW,248,1.6,2.5,72,0.00,,,0.00,WUHU216HW,2013-02-26 11:32:00,
2013-02-26 06:36:00,29.9,21.6,29.92,SW,225,2.5,3.4,71,0.00,,,0.00,WUHU216HW,2013-02-26 11:36:00,
2013-02-26 06:37:00,29.9,21.6,29.92,SSW,203,2.5,3.4,71,0.00,,,0.00,WUHU216HW,2013-02-26 11:37:00,
2013-02-26 06:38:00,29.9,21.6,29.92,SSW,203,2.5,3.4,71,0.00,,,0.00,WUHU216HW,2013-02-26 11:38:00,
2013-02-26 06:42:00,30.2,20.9,29.91,SW,225,4.3,4.9,68,0.00,,,0.00,WUHU216HW,2013-02-26 11:42:00,
2013-02-26 06:43:00,30.6,22.0,29.91,SSW,203,4.3,4.9,70,0.00,,,0.00,WUHU216HW,2013-02-26 11:43:00,
2013-02-26 06:47:00,30.4,21.4,29.91,SW,225,4.3,5.4,69,0.00,,,0.00,WUHU216HW,2013-02-26 11:47:00,
2013-02-26 06:48:00,30.6,22.0,29.91,WSW,248,4.0,5.4,70,0.00,,,0.00,WUHU216HW,2013-02-26 11:48:00,
2013-02-26 06:49:00,30.6,22.0,29.91,WSW,248,7.6,7.6,70,0.00,,,0.00,WUHU216HW,2013-02-26 11:49:00,
2013-02-26 06:50:00,30.6,22.0,29.91,WSW,248,7.6,7.6,70,0.00,,,0.00,WUHU216HW,2013-02-26 11:50:00,
2013-02-26 06:54:00,31.0,22.0,29.92,SW,225,4.0,7.6,69,0.00,,,0.00,WUHU216HW,2013-02-26 11:54:00,
2013-02-26 06:55:00,31.0,22.0,29.92,SW,225,3.1,7.6,69,0.00,,,0.00,WUHU216HW,2013-02-26 11:55:00,
2013-02-26 06:56:00,31.0,21.6,29.92,SW,225,5.6,7.6,68,0.00,,,0.00,WUHU216HW,2013-02-26 11:56:00,
2013-02-26 06:59:00,31.1,21.8,29.92,SW,225,6.0,6.0,68,0.00,,,0.00,WUHU216HW,2013-02-26 11:59:00,
2013-02-26 07:00:00,31.1,21.8,29.92,SW,225,6.0,6.0,68,0.00,,,0.00,WUHU216HW,2013-02-26 12:00:00,
2013-02-26 07:01:00,31.1,22.1,29.92,WSW,248,5.8,6.0,69,0.00,,,0.00,WUHU216HW,2013-02-26 12:01:00,
2013-02-26 07:04:00,31.3,22.7,29.92,SSW,203,3.4,6.0,70,0.00,,,0.00,WUHU216HW,2013-02-26 12:04:00,
2013-02-26 07:05:00,31.3,23.1,29.92,SW,225,2.9,6.0,71,0.00,,,0.00,WUHU216HW,2013-02-26 12:05:00,
2013-02-26 07:06:00,31.3,23.1,29.92,SSW,203,2.0,6.0,71,0.00,,,0.00,WUHU216HW,2013-02-26 12:06:00,
2013-02-26 07:10:00,31.1,23.1,29.92,South,180,1.3,5.8,72,0.00,,,0.00,WUHU216HW,2013-02-26 12:10:00,
2013-02-26 07:11:00,31.1,23.1,29.92,SSW,203,1.8,5.1,72,0.00,,,0.00,WUHU216HW,2013-02-26 12:11:00,
2013-02-26 07:16:00,31.3,22.3,29.91,WSW,248,3.8,4.3,69,0.00,,,0.00,WUHU216HW,2013-02-26 12:16:00,
2013-02-26 07:17:00,31.3,22.3,29.91,WSW,248,3.8,4.3,69,0.00,,,0.00,WUHU216HW,2013-02-26 12:17:00,
2013-02-26 07:21:00,32.2,22.2,29.90,WSW,248,3.4,4.5,66,0.00,,,0.00,WUHU216HW,2013-02-26 12:21:00,
2013-02-26 07:22:00,32.4,22.3,29.90,WSW,248,3.1,4.5,66,0.00,,,0.00,WUHU216HW,2013-02-26 12:22:00,
2013-02-26 07:27:00,32.6,23.1,29.90,SW,225,3.8,4.5,68,0.00,,,0.00,WUHU216HW,2013-02-26 12:27:00,
2013-02-26 07:28:00,32.6,22.4,29.90,SW,225,2.7,4.5,66,0.00,,,0.00,WUHU216HW,2013-02-26 12:28:00,
2013-02-26 07:29:00,32.8,23.7,29.90,SSW,203,2.5,4.3,69,0.00,,,0.00,WUHU216HW,2013-02-26 12:29:00,
2013-02-26 07:33:00,32.6,23.9,29.90,SW,225,2.5,4.0,70,0.00,,,0.00,WUHU216HW,2013-02-26 12:33:00,
2013-02-26 07:34:00,32.6,23.5,29.90,SW,225,6.5,6.5,69,0.00,,,0.00,WUHU216HW,2013-02-26 12:34:00,
2013-02-26 07:38:00,32.9,23.9,29.91,SSW,203,1.1,6.5,69,0.00,,,0.00,WUHU216HW,2013-02-26 12:38:00,
2013-02-26 07:40:00,32.9,23.9,29.91,SW,225,1.8,6.5,69,0.00,,,0.00,WUHU216HW,2013-02-26 12:40:00,
2013-02-26 07:43:00,33.1,23.3,29.91,WSW,248,4.3,5.4,67,0.00,,,0.00,WUHU216HW,2013-02-26 12:43:00,
2013-02-26 07:45:00,33.5,23.2,29.91,SW,225,5.4,6.3,66,0.00,,,0.00,WUHU216HW,2013-02-26 12:45:00,
2013-02-26 07:49:00,33.7,23.8,29.91,SW,225,6.9,6.9,67,0.00,,,0.00,WUHU216HW,2013-02-26 12:49:00,
2013-02-26 07:50:00,33.5,23.6,29.91,SW,225,6.0,6.9,67,0.00,,,0.00,WUHU216HW,2013-02-26 12:50:00,
2013-02-26 07:51:00,33.5,23.6,29.91,SW,225,6.0,6.9,67,0.00,,,0.00,WUHU216HW,2013-02-26 12:51:00,
2013-02-26 07:52:00,33.5,23.6,29.91,SW,225,6.3,6.9,67,0.00,,,0.00,WUHU216HW,2013-02-26 12:52:00,
2013-02-26 07:54:00,33.5,23.6,29.91,SW,225,6.0,6.9,67,0.00,,,0.00,WUHU216HW,2013-02-26 12:54:00,
2013-02-26 07:56:00,33.7,23.8,29.91,SW,225,6.0,6.9,67,0.00,,,0.00,WUHU216HW,2013-02-26 12:56:00,
2013-02-26 07:57:00,33.7,23.8,29.91,SW,225,6.9,6.9,67,0.00,,,0.00,WUHU216HW,2013-02-26 12:57:00,
2013-02-26 07:58:00,33.8,23.6,29.91,WSW,248,6.3,6.9,66,0.00,,,0.00,WUHU216HW,2013-02-26 12:58:00,
2013-02-26 07:59:00,33.8,23.2,29.91,SW,225,7.2,7.2,65,0.00,,,0.00,WUHU216HW,2013-02-26 12:59:00,
2013-02-26 08:01:00,33.8,23.6,29.91,WSW,248,8.7,8.7,66,0.00,,,0.00,WUHU216HW,2013-02-26 13:01:00,
2013-02-26 08:02:00,34.0,23.4,29.92,WSW,248,7.2,8.7,65,0.00,,,0.00,WUHU216HW,2013-02-26 13:02:00,
2013-02-26 08:04:00,34.2,23.2,29.92,SW,225,8.3,8.7,64,0.00,,,0.00,WUHU216HW,2013-02-26 13:04:00,
2013-02-26 08:05:00,34.2,23.2,29.92,WSW,248,6.0,8.7,64,0.00,,,0.00,WUHU216HW,2013-02-26 13:05:00,
2013-02-26 08:06:00,34.2,23.2,29.92,SW,225,7.4,8.7,64,0.00,,,0.00,WUHU216HW,2013-02-26 13:06:00,
2013-02-26 08:07:00,34.2,23.2,29.92,WSW,248,8.3,8.7,64,0.00,,,0.00,WUHU216HW,2013-02-26 13:07:00,
2013-02-26 08:10:00,34.2,23.2,29.93,WSW,248,4.7,8.7,64,0.00,,,0.00,WUHU216HW,2013-02-26 13:10:00,
2013-02-26 08:12:00,34.4,23.4,29.93,WSW,248,8.3,8.5,64,0.00,,,0.00,WUHU216HW,2013-02-26 13:12:00,
2013-02-26 08:15:00,34.2,23.2,29.93,SSW,203,7.6,9.2,64,0.00,,,0.00,WUHU216HW,2013-02-26 13:15:00,
2013-02-26 08:16:00,34.2,23.6,29.93,SSW,203,7.6,9.2,65,0.00,,,0.00,WUHU216HW,2013-02-26 13:16:00,
2013-02-26 08:17:00,34.2,23.9,29.93,SSW,203,6.7,9.2,66,0.00,,,0.00,WUHU216HW,2013-02-26 13:17:00,
2013-02-26 08:18:00,34.2,23.9,29.93,SSW,203,6.7,9.2,66,0.00,,,0.00,WUHU216HW,2013-02-26 13:18:00,
2013-02-26 08:21:00,33.8,23.9,29.93,SW,225,6.9,9.2,67,0.00,,,0.00,WUHU216HW,2013-02-26 13:21:00,
2013-02-26 08:22:00,34.0,24.1,29.93,SSW,203,6.3,9.2,67,0.00,,,0.00,WUHU216HW,2013-02-26 13:22:00,
2013-02-26 08:23:00,34.0,24.1,29.93,SSW,203,6.3,9.2,67,0.00,,,0.00,WUHU216HW,2013-02-26 13:23:00,
2013-02-26 08:24:00,34.0,24.1,29.93,SW,225,6.9,7.6,67,0.00,,,0.00,WUHU216HW,2013-02-26 13:24:00,
2013-02-26 08:27:00,34.2,23.9,29.93,SW,225,6.3,7.4,66,0.00,,,0.00,WUHU216HW,2013-02-26 13:27:00,
2013-02-26 08:28:00,34.2,23.9,29.93,SW,225,6.3,7.4,66,0.00,,,0.00,WUHU216HW,2013-02-26 13:28:00,
2013-02-26 08:29:00,34.2,23.9,29.92,WSW,248,6.7,7.4,66,0.00,,,0.00,WUHU216HW,2013-02-26 13:29:00,
2013-02-26 08:33:00,34.2,23.9,29.92,SSW,203,5.4,7.4,66,0.00,,,0.00,WUHU216HW,2013-02-26 13:33:00,
2013-02-26 08:34:00,34.2,24.3,29.92,SW,225,4.5,7.4,67,0.00,,,0.00,WUHU216HW,2013-02-26 13:34:00,
2013-02-26 08:35:00,34.2,24.3,29.92,SW,225,4.5,7.4,67,0.00,,,0.00,WUHU216HW,2013-02-26 13:35:00,
2013-02-26 08:38:00,34.2,24.3,29.92,SSW,203,4.7,6.7,67,0.00,,,0.00,WUHU216HW,2013-02-26 13:38:00,
2013-02-26 08:39:00,34.2,23.9,29.92,SSW,203,4.5,6.3,66,0.00,,,0.00,WUHU216HW,2013-02-26 13:39:00,
2013-02-26 08:40:00,34.2,24.3,29.92,SSW,203,4.0,6.3,67,0.00,,,0.00,WUHU216HW,2013-02-26 13:40:00,
2013-02-26 08:43:00,34.2,23.9,29.92,SSW,203,3.4,5.4,66,0.00,,,0.00,WUHU216HW,2013-02-26 13:43:00,
2013-02-26 08:44:00,34.2,24.3,29.91,South,180,4.3,5.4,67,0.00,,,0.00,WUHU216HW,2013-02-26 13:44:00,
2013-02-26 08:46:00,34.4,24.1,29.92,South,180,4.5,4.7,66,0.00,,,0.00,WUHU216HW,2013-02-26 13:46:00,
2013-02-26 08:48:00,34.4,23.8,29.92,SW,225,6.3,6.3,65,0.00,,,0.00,WUHU216HW,2013-02-26 13:48:00,
2013-02-26 08:49:00,34.6,24.7,29.92,SW,225,5.4,6.3,67,0.00,,,0.00,WUHU216HW,2013-02-26 13:49:00,
2013-02-26 08:51:00,34.6,24.3,29.92,SW,225,6.0,6.3,66,0.00,,,0.00,WUHU216HW,2013-02-26 13:51:00,
2013-02-26 08:52:00,34.6,24.3,29.92,SW,225,6.0,6.3,66,0.00,,,0.00,WUHU216HW,2013-02-26 13:52:00,
2013-02-26 08:54:00,34.7,23.8,29.92,SW,225,6.0,7.4,64,0.00,,,0.00,WUHU216HW,2013-02-26 13:54:00,
2013-02-26 08:57:00,34.9,24.3,29.92,WSW,248,6.3,7.4,65,0.00,,,0.00,WUHU216HW,2013-02-26 13:57:00,
2013-02-26 08:58:00,34.9,24.3,29.92,WSW,248,6.3,7.4,65,0.00,,,0.00,WUHU216HW,2013-02-26 13:58:00,
2013-02-26 08:59:00,34.9,23.9,29.92,WSW,248,7.8,7.8,64,0.00,,,0.00,WUHU216HW,2013-02-26 13:59:00,
2013-02-26 09:01:00,34.9,23.6,29.91,WSW,248,6.0,7.8,63,0.00,,,0.00,WUHU216HW,2013-02-26 14:01:00,
2013-02-26 09:03:00,35.1,24.1,29.91,West,270,4.7,7.8,64,0.00,,,0.00,WUHU216HW,2013-02-26 14:03:00,
2013-02-26 09:05:00,34.9,23.6,29.91,SW,225,4.5,7.8,63,0.00,,,0.00,WUHU216HW,2013-02-26 14:05:00,
2013-02-26 09:06:00,35.1,23.8,29.91,West,270,4.7,7.8,63,0.00,,,0.00,WUHU216HW,2013-02-26 14:06:00,
2013-02-26 09:08:00,35.1,23.8,29.91,SW,225,6.0,6.7,63,0.00,,,0.00,WUHU216HW,2013-02-26 14:08:00,
2013-02-26 09:09:00,35.1,23.8,29.91,SW,225,5.4,6.7,63,0.00,,,0.00,WUHU216HW,2013-02-26 14:09:00,
2013-02-26 09:10:00,35.1,23.4,29.91,SW,225,6.3,6.3,62,0.00,,,0.00,WUHU216HW,2013-02-26 14:10:00,
2013-02-26 09:11:00,35.3,23.6,29.91,SW,225,5.4,6.3,62,0.00,,,0.00,WUHU216HW,2013-02-26 14:11:00,
2013-02-26 09:14:00,35.3,23.9,29.91,WSW,248,2.9,6.3,63,0.00,,,0.00,WUHU216HW,2013-02-26 14:14:00,
2013-02-26 09:15:00,35.3,23.9,29.91,WSW,248,2.9,6.3,63,0.00,,,0.00,WUHU216HW,2013-02-26 14:15:00,
2013-02-26 09:16:00,35.3,23.9,29.91,WSW,248,3.8,6.3,63,0.00,,,0.00,WUHU216HW,2013-02-26 14:16:00,
2013-02-26 09:17:00,35.3,23.9,29.91,West,270,1.3,6.3,63,0.00,,,0.00,WUHU216HW,2013-02-26 14:17:00,
2013-02-26 09:19:00,35.3,24.3,29.92,WSW,248,3.6,6.3,64,0.00,,,0.00,WUHU216HW,2013-02-26 14:19:00,
2013-02-26 09:20:00,35.3,24.3,29.92,WSW,248,3.6,6.3,64,0.00,,,0.00,WUHU216HW,2013-02-26 14:20:00,
2013-02-26 09:23:00,35.3,23.9,29.92,SW,225,4.5,4.7,63,0.00,,,0.00,WUHU216HW,2013-02-26 14:23:00,
2013-02-26 09:24:00,35.3,23.9,29.91,SW,225,4.7,6.9,63,0.00,,,0.00,WUHU216HW,2013-02-26 14:24:00,
2013-02-26 09:25:00,35.3,23.9,29.91,SW,225,4.7,6.9,63,0.00,,,0.00,WUHU216HW,2013-02-26 14:25:00,
2013-02-26 09:26:00,35.3,24.7,29.91,SW,225,4.0,6.9,65,0.00,,,0.00,WUHU216HW,2013-02-26 14:26:00,
2013-02-26 09:29:00,35.3,24.7,29.91,SW,225,4.7,6.9,65,0.00,,,0.00,WUHU216HW,2013-02-26 14:29:00,
2013-02-26 09:30:00,35.3,25.0,29.91,SW,225,4.5,6.9,66,0.00,,,0.00,WUHU216HW,2013-02-26 14:30:00,
2013-02-26 09:32:00,35.1,24.5,29.91,SW,225,4.9,6.9,65,0.00,,,0.00,WUHU216HW,2013-02-26 14:32:00,
2013-02-26 09:34:00,35.1,24.5,29.91,SW,225,5.4,5.4,65,0.00,,,0.00,WUHU216HW,2013-02-26 14:34:00,
2013-02-26 09:35:00,35.1,24.5,29.91,SW,225,3.4,5.4,65,0.00,,,0.00,WUHU216HW,2013-02-26 14:35:00,
2013-02-26 09:36:00,35.1,24.8,29.91,SW,225,4.0,5.4,66,0.00,,,0.00,WUHU216HW,2013-02-26 14:36:00,
2013-02-26 09:37:00,35.1,24.5,29.91,SW,225,5.8,5.8,65,0.00,,,0.00,WUHU216HW,2013-02-26 14:37:00,
2013-02-26 09:39:00,34.9,24.7,29.90,SSW,203,4.0,5.8,66,0.00,,,0.00,WUHU216HW,2013-02-26 14:39:00,
2013-02-26 09:41:00,35.1,25.2,29.90,SW,225,4.7,5.8,67,0.00,,,0.00,WUHU216HW,2013-02-26 14:41:00,
2013-02-26 09:43:00,34.9,24.7,29.90,SW,225,5.4,6.3,66,0.00,,,0.00,WUHU216HW,2013-02-26 14:43:00,
2013-02-26 09:46:00,34.9,25.4,29.90,SW,225,2.2,6.3,68,0.00,,,0.00,WUHU216HW,2013-02-26 14:46:00,
2013-02-26 09:47:00,34.9,25.0,29.90,WSW,248,2.0,6.3,67,0.00,,,0.00,WUHU216HW,2013-02-26 14:47:00,
2013-02-26 09:49:00,34.7,24.8,29.90,SW,225,2.2,6.3,67,0.00,,,0.00,WUHU216HW,2013-02-26 14:49:00,
2013-02-26 09:52:00,34.9,25.0,29.90,South,180,2.5,5.4,67,0.00,,,0.00,WUHU216HW,2013-02-26 14:52:00,
2013-02-26 09:55:00,34.9,25.0,29.90,SW,225,1.1,2.9,67,0.00,,,0.00,WUHU216HW,2013-02-26 14:55:00,
2013-02-26 09:57:00,34.9,25.0,29.90,SE,135,2.7,2.9,67,0.00,,,0.00,WUHU216HW,2013-02-26 14:57:00,
2013-02-26 09:58:00,34.9,25.0,29.90,SE,135,2.7,2.9,67,0.00,,,0.00,WUHU216HW,2013-02-26 14:58:00,
2013-02-26 10:00:00,34.9,25.0,29.90,SSE,158,1.1,2.9,67,0.00,,,0.00,WUHU216HW,2013-02-26 15:00:00,
2013-02-26 10:03:00,34.9,25.0,29.90,ESE,113,0.9,2.7,67,0.00,,,0.00,WUHU216HW,2013-02-26 15:03:00,
2013-02-26 10:04:00,35.1,26.7,29.89,NE,45,2.5,2.7,71,0.00,,,0.00,WUHU216HW,2013-02-26 15:04:00,
2013-02-26 10:05:00,34.9,26.5,29.89,NE,45,1.8,2.7,71,0.00,,,0.00,WUHU216HW,2013-02-26 15:05:00,
2013-02-26 10:08:00,34.7,26.3,29.89,NE,45,0.0,2.5,71,0.00,,,0.00,WUHU216HW,2013-02-26 15:08:00,
2013-02-26 10:09:00,34.6,26.1,29.89,NNE,23,0.4,2.5,71,0.01,,,0.00,WUHU216HW,2013-02-26 15:09:00,
2013-02-26 10:10:00,34.6,26.1,29.89,NNE,23,0.4,2.5,71,0.01,,,0.00,WUHU216HW,2013-02-26 15:10:00,
2013-02-26 10:11:00,34.6,26.1,29.89,NNE,23,0.4,2.5,71,0.01,,,0.00,WUHU216HW,2013-02-26 15:11:00,
2013-02-26 10:13:00,34.4,26.2,29.89,NE,45,1.1,2.5,72,0.01,,,0.00,WUHU216HW,2013-02-26 15:13:00,
2013-02-26 10:14:00,34.4,26.6,29.89,NE,45,0.7,1.8,73,0.01,,,0.00,WUHU216HW,2013-02-26 15:14:00,
2013-02-26 10:15:00,34.4,26.6,29.89,NE,45,0.4,1.3,73,0.01,,,0.00,WUHU216HW,2013-02-26 15:15:00,
2013-02-26 10:17:00,34.2,26.6,29.89,NE,45,0.9,1.1,74,0.01,,,0.00,WUHU216HW,2013-02-26 15:17:00,
2013-02-26 10:19:00,34.2,27.6,29.89,ENE,68,1.6,1.6,77,0.01,,,0.00,WUHU216HW,2013-02-26 15:19:00,
2013-02-26 10:20:00,34.2,27.6,29.89,ENE,68,1.6,1.6,77,0.01,,,0.00,WUHU216HW,2013-02-26 15:20:00,
2013-02-26 10:22:00,33.8,27.6,29.89,NE,45,2.5,2.5,78,0.01,,,0.00,WUHU216HW,2013-02-26 15:22:00,
2013-02-26 10:25:00,33.5,27.6,29.89,NE,45,2.2,2.5,79,0.01,,,0.00,WUHU216HW,2013-02-26 15:25:00,
2013-02-26 10:27:00,33.3,27.5,29.89,NE,45,1.6,2.5,79,0.01,,,0.00,WUHU216HW,2013-02-26 15:27:00,
2013-02-26 10:30:00,33.1,27.6,29.89,ENE,68,1.8,2.5,80,0.01,,,0.00,WUHU216HW,2013-02-26 15:30:00,
2013-02-26 10:31:00,32.9,27.1,29.89,ENE,68,2.9,2.9,79,0.01,,,0.00,WUHU216HW,2013-02-26 15:31:00,
2013-02-26 10:32:00,32.9,27.5,29.89,ENE,68,2.5,2.9,80,0.01,,,0.00,WUHU216HW,2013-02-26 15:32:00,
2013-02-26 10:33:00,32.8,27.3,29.89,ENE,68,2.9,2.9,80,0.01,,,0.00,WUHU216HW,2013-02-26 15:33:00,
2013-02-26 10:35:00,32.6,27.7,29.88,NE,45,4.7,4.7,82,0.01,,,0.00,WUHU216HW,2013-02-26 15:35:00,
2013-02-26 10:37:00,32.6,27.5,29.89,ENE,68,1.8,4.7,81,0.01,,,0.00,WUHU216HW,2013-02-26 15:37:00,
2013-02-26 10:38:00,32.4,27.3,29.88,NE,45,2.0,4.7,81,0.01,,,0.00,WUHU216HW,2013-02-26 15:38:00,
2013-02-26 10:40:00,32.2,27.1,29.88,NE,45,2.5,4.7,81,0.01,,,0.00,WUHU216HW,2013-02-26 15:40:00,
2013-02-26 10:42:00,32.2,27.1,29.88,NNE,23,3.6,4.7,81,0.01,,,0.00,WUHU216HW,2013-02-26 15:42:00,
2013-02-26 10:43:00,32.2,27.1,29.88,NNE,23,3.6,4.7,81,0.01,,,0.00,WUHU216HW,2013-02-26 15:43:00,
2013-02-26 10:44:00,32.0,26.6,29.88,NE,45,2.5,4.7,80,0.01,,,0.00,WUHU216HW,2013-02-26 15:44:00,
2013-02-26 10:46:00,32.0,26.9,29.88,NNE,23,4.3,4.3,81,0.01,,,0.00,WUHU216HW,2013-02-26 15:46:00,
2013-02-26 10:48:00,32.0,26.9,29.88,ENE,68,2.7,4.3,81,0.01,,,0.00,WUHU216HW,2013-02-26 15:48:00,
2013-02-26 10:49:00,32.0,26.6,29.88,NNE,23,3.4,4.3,80,0.01,,,0.00,WUHU216HW,2013-02-26 15:49:00,
2013-02-26 10:51:00,32.0,26.6,29.88,ENE,68,2.5,4.3,80,0.01,,,0.00,WUHU216HW,2013-02-26 15:51:00,
2013-02-26 10:52:00,32.0,26.6,29.88,NNE,23,1.8,4.3,80,0.01,,,0.00,WUHU216HW,2013-02-26 15:52:00,
2013-02-26 10:54:00,32.0,26.6,29.88,NNE,23,1.3,4.3,80,0.01,,,0.00,WUHU216HW,2013-02-26 15:54:00,
2013-02-26 10:55:00,32.0,26.6,29.88,NNE,23,1.8,4.3,80,0.01,,,0.00,WUHU216HW,2013-02-26 15:55:00,
2013-02-26 10:56:00,32.0,26.9,29.88,ENE,68,0.4,3.4,81,0.01,,,0.00,WUHU216HW,2013-02-26 15:56:00,
2013-02-26 10:57:00,32.0,26.6,29.88,North,0,0.9,3.4,80,0.01,,,0.00,WUHU216HW,2013-02-26 15:57:00,
2013-02-26 11:00:00,32.0,26.6,29.88,ENE,68,0.9,2.5,80,0.01,,,0.00,WUHU216HW,2013-02-26 16:00:00,
2013-02-26 11:02:00,32.0,26.6,29.88,North,0,1.8,2.0,80,0.01,,,0.00,WUHU216HW,2013-02-26 16:02:00,
2013-02-26 11:05:00,32.0,26.6,29.88,NNE,23,0.9,2.0,80,0.01,,,0.00,WUHU216HW,2013-02-26 16:05:00,
2013-02-26 11:07:00,32.2,26.8,29.88,NE,45,1.3,2.0,80,0.01,,,0.00,WUHU216HW,2013-02-26 16:07:00,
2013-02-26 11:10:00,32.0,26.3,29.87,NE,45,1.6,2.0,79,0.00,,,0.00,WUHU216HW,2013-02-26 16:10:00,
2013-02-26 11:11:00,32.0,26.3,29.87,NE,45,1.6,2.0,79,0.00,,,0.00,WUHU216HW,2013-02-26 16:11:00,
2013-02-26 11:13:00,31.9,26.5,29.87,NE,45,1.3,2.0,80,0.01,,,0.00,WUHU216HW,2013-02-26 16:13:00,
2013-02-26 11:15:00,31.9,26.7,29.87,East,90,1.8,1.8,81,0.01,,,0.00,WUHU216HW,2013-02-26 16:15:00,
2013-02-26 11:16:00,31.9,26.7,29.87,East,90,1.8,1.8,81,0.01,,,0.00,WUHU216HW,2013-02-26 16:16:00,
2013-02-26 11:19:00,31.9,26.5,29.87,NE,45,0.4,3.4,80,0.01,,,0.00,WUHU216HW,2013-02-26 16:19:00,
2013-02-26 11:21:00,31.9,26.5,29.88,ESE,113,1.1,3.4,80,0.01,,,0.00,WUHU216HW,2013-02-26 16:21:00,
2013-02-26 11:22:00,31.9,26.5,29.88,ESE,113,1.1,3.4,80,0.01,,,0.00,WUHU216HW,2013-02-26 16:22:00,
2013-02-26 11:24:00,31.9,26.5,29.88,ESE,113,0.9,3.4,80,0.01,,,0.00,WUHU216HW,2013-02-26 16:24:00,
2013-02-26 11:26:00,32.0,26.6,29.88,North,0,2.5,2.5,80,0.01,,,0.00,WUHU216HW,2013-02-26 16:26:00,
2013-02-26 11:27:00,32.0,26.6,29.88,NE,45,1.1,2.5,80,0.01,,,0.00,WUHU216HW,2013-02-26 16:27:00,
2013-02-26 11:30:00,32.0,26.9,29.88,ENE,68,1.8,2.5,81,0.02,,,0.00,WUHU216HW,2013-02-26 16:30:00,
2013-02-26 11:31:00,32.0,26.6,29.88,ENE,68,1.8,2.5,80,0.02,,,0.01,WUHU216HW,2013-02-26 16:31:00,
2013-02-26 11:32:00,32.0,26.6,29.88,ENE,68,1.8,2.5,80,0.02,,,0.01,WUHU216HW,2013-02-26 16:32:00,
2013-02-26 11:33:00,32.0,26.9,29.88,NE,45,1.1,2.5,81,0.02,,,0.01,WUHU216HW,2013-02-26 16:33:00,
2013-02-26 11:35:00,32.0,26.6,29.88,NNE,23,1.8,2.5,80,0.02,,,0.01,WUHU216HW,2013-02-26 16:35:00,
2013-02-26 11:36:00,31.9,26.7,29.87,NE,45,1.1,1.8,81,0.02,,,0.01,WUHU216HW,2013-02-26 16:36:00,
2013-02-26 11:37:00,31.9,26.7,29.87,SE,135,1.3,1.8,81,0.02,,,0.01,WUHU216HW,2013-02-26 16:37:00,
2013-02-26 11:38:00,31.9,26.7,29.87,NE,45,3.1,3.1,81,0.02,,,0.01,WUHU216HW,2013-02-26 16:38:00,
2013-02-26 11:40:00,31.9,26.7,29.87,ENE,68,1.3,3.1,81,0.02,,,0.01,WUHU216HW,2013-02-26 16:40:00,
2013-02-26 11:41:00,31.9,26.7,29.87,ESE,113,0.2,3.1,81,0.02,,,0.01,WUHU216HW,2013-02-26 16:41:00,
2013-02-26 11:44:00,31.9,26.7,29.87,NNW,338,1.1,3.1,81,0.03,,,0.02,WUHU216HW,2013-02-26 16:44:00,
2013-02-26 11:46:00,31.9,26.7,29.87,NNE,23,0.9,3.1,81,0.03,,,0.02,WUHU216HW,2013-02-26 16:46:00,
2013-02-26 11:47:00,31.9,26.7,29.87,NNE,23,0.4,3.1,81,0.03,,,0.02,WUHU216HW,2013-02-26 16:47:00,
2013-02-26 11:49:00,32.0,27.2,29.87,East,90,1.1,2.0,82,0.03,,,0.02,WUHU216HW,2013-02-26 16:49:00,
2013-02-26 11:50:00,32.0,27.2,29.87,ENE,68,0.7,2.0,82,0.03,,,0.02,WUHU216HW,2013-02-26 16:50:00,
2013-02-26 11:52:00,32.0,27.6,29.87,NNE,23,2.2,3.4,83,0.03,,,0.02,WUHU216HW,2013-02-26 16:52:00,
2013-02-26 11:55:00,32.0,27.6,29.86,North,0,0.2,3.4,83,0.04,,,0.03,WUHU216HW,2013-02-26 16:55:00,
2013-02-26 11:56:00,32.0,27.6,29.86,NNE,23,0.9,3.4,83,0.04,,,0.03,WUHU216HW,2013-02-26 16:56:00,
2013-02-26 11:57:00,32.0,27.6,29.86,NE,45,1.3,3.4,83,0.04,,,0.03,WUHU216HW,2013-02-26 16:57:00,
2013-02-26 11:59:00,32.0,27.6,29.86,NE,45,1.6,3.4,83,0.04,,,0.03,WUHU216HW,2013-02-26 16:59:00,
2013-02-26 12:01:00,32.0,27.6,29.86,East,90,2.2,3.4,83,0.05,,,0.04,WUHU216HW,2013-02-26 17:01:00,
2013-02-26 12:03:00,31.9,27.4,29.86,NE,45,2.0,2.5,83,0.05,,,0.04,WUHU216HW,2013-02-26 17:03:00,
2013-02-26 12:04:00,31.9,27.4,29.86,NNE,23,2.2,2.5,83,0.05,,,0.04,WUHU216HW,2013-02-26 17:04:00,
2013-02-26 12:05:00,31.9,27.4,29.86,NNE,23,2.2,2.2,83,0.05,,,0.04,WUHU216HW,2013-02-26 17:05:00,
2013-02-26 12:07:00,31.9,27.6,29.85,NE,45,0.0,2.2,84,0.06,,,0.05,WUHU216HW,2013-02-26 17:07:00,
2013-02-26 12:09:00,31.9,27.9,29.86,NNE,23,1.1,2.2,85,0.05,,,0.05,WUHU216HW,2013-02-26 17:09:00,
2013-02-26 12:10:00,31.9,27.9,29.86,NNE,23,1.1,2.2,85,0.05,,,0.05,WUHU216HW,2013-02-26 17:10:00,
2013-02-26 12:12:00,31.9,27.9,29.85,North,0,1.1,2.2,85,0.05,,,0.05,WUHU216HW,2013-02-26 17:12:00,
2013-02-26 12:14:00,31.9,27.9,29.85,NNE,23,0.9,1.8,85,0.05,,,0.05,WUHU216HW,2013-02-26 17:14:00,
2013-02-26 12:15:00,31.7,27.7,29.85,North,0,0.7,1.8,85,0.06,,,0.05,WUHU216HW,2013-02-26 17:15:00,
2013-02-26 12:16:00,31.9,27.9,29.85,NNW,338,0.4,1.8,85,0.06,,,0.06,WUHU216HW,2013-02-26 17:16:00,
2013-02-26 12:18:00,32.0,28.1,29.84,NNW,338,1.1,1.8,85,0.06,,,0.06,WUHU216HW,2013-02-26 17:18:00,
2013-02-26 12:20:00,32.0,28.1,29.84,NNE,23,2.5,2.5,85,0.06,,,0.06,WUHU216HW,2013-02-26 17:20:00,
2013-02-26 12:23:00,32.0,28.4,29.83,North,0,0.7,3.4,86,0.06,,,0.06,WUHU216HW,2013-02-26 17:23:00,
2013-02-26 12:24:00,32.0,28.4,29.83,North,0,0.7,3.4,86,0.06,,,0.06,WUHU216HW,2013-02-26 17:24:00,
2013-02-26 12:25:00,32.2,28.5,29.83,NE,45,1.8,3.4,86,0.06,,,0.06,WUHU216HW,2013-02-26 17:25:00,
2013-02-26 12:26:00,32.2,28.5,29.83,NE,45,1.8,3.4,86,0.06,,,0.06,WUHU216HW,2013-02-26 17:26:00,
2013-02-26 12:29:00,32.2,28.5,29.82,NNE,23,2.2,3.4,86,0.06,,,0.07,WUHU216HW,2013-02-26 17:29:00,
2013-02-26 12:30:00,32.2,28.5,29.82,NE,45,1.1,3.4,86,0.06,,,0.07,WUHU216HW,2013-02-26 17:30:00,
2013-02-26 12:31:00,32.2,28.5,29.82,NE,45,1.1,3.4,86,0.06,,,0.07,WUHU216HW,2013-02-26 17:31:00,
2013-02-26 12:35:00,32.6,29.2,29.82,North,0,1.6,2.2,87,0.06,,,0.07,WUHU216HW,2013-02-26 17:35:00,
2013-02-26 12:36:00,32.4,29.0,29.82,ENE,68,1.8,2.2,87,0.07,,,0.07,WUHU216HW,2013-02-26 17:36:00,
2013-02-26 12:41:00,32.6,28.9,29.81,NNE,23,1.1,2.7,86,0.06,,,0.08,WUHU216HW,2013-02-26 17:41:00,
2013-02-26 12:43:00,32.8,29.0,29.81,NE,45,0.9,2.7,86,0.06,,,0.08,WUHU216HW,2013-02-26 17:43:00,
2013-02-26 12:46:00,32.8,29.0,29.81,ENE,68,2.5,2.7,86,0.06,,,0.08,WUHU216HW,2013-02-26 17:46:00,
2013-02-26 12:47:00,32.8,29.0,29.81,ENE,68,1.6,2.7,86,0.06,,,0.08,WUHU216HW,2013-02-26 17:47:00,
2013-02-26 12:48:00,32.8,29.0,29.80,NNE,23,0.4,2.5,86,0.06,,,0.08,WUHU216HW,2013-02-26 17:48:00,
2013-02-26 12:52:00,33.1,29.6,29.80,NNW,338,1.6,2.5,87,0.07,,,0.09,WUHU216HW,2013-02-26 17:52:00,
2013-02-26 12:54:00,33.1,29.6,29.80,NNE,23,3.1,3.1,87,0.06,,,0.09,WUHU216HW,2013-02-26 17:54:00,
2013-02-26 12:57:00,33.1,29.3,29.79,NNE,23,0.9,3.8,86,0.05,,,0.09,WUHU216HW,2013-02-26 17:57:00,
2013-02-26 12:59:00,33.1,29.3,29.79,NW,315,2.2,3.8,86,0.05,,,0.09,WUHU216HW,2013-02-26 17:59:00,
2013-02-26 13:02:00,33.3,29.5,29.78,ENE,68,3.6,3.8,86,0.05,,,0.09,WUHU216HW,2013-02-26 18:02:00,
2013-02-26 13:03:00,33.3,29.5,29.78,North,0,4.0,4.0,86,0.05,,,0.09,WUHU216HW,2013-02-26 18:03:00,
2013-02-26 13:04:00,33.3,29.3,29.78,NNE,23,2.2,4.0,85,0.04,,,0.09,WUHU216HW,2013-02-26 18:04:00,
2013-02-26 13:05:00,33.1,29.1,29.78,NNE,23,4.3,4.3,85,0.05,,,0.09,WUHU216HW,2013-02-26 18:05:00,
2013-02-26 13:08:00,33.1,29.1,29.77,NNE,23,4.0,4.3,85,0.05,,,0.10,WUHU216HW,2013-02-26 18:08:00,
2013-02-26 13:10:00,33.1,29.1,29.77,North,0,5.1,5.1,85,0.05,,,0.10,WUHU216HW,2013-02-26 18:10:00,
2013-02-26 13:11:00,33.1,29.3,29.77,ENE,68,1.1,5.1,86,0.05,,,0.10,WUHU216HW,2013-02-26 18:11:00,
2013-02-26 13:13:00,33.3,29.5,29.77,NE,45,4.7,5.1,86,0.04,,,0.10,WUHU216HW,2013-02-26 18:13:00,
2013-02-26 13:15:00,33.3,29.3,29.77,NNE,23,2.5,5.1,85,0.04,,,0.10,WUHU216HW,2013-02-26 18:15:00,
2013-02-26 13:16:00,33.3,29.3,29.77,NE,45,1.8,5.1,85,0.04,,,0.10,WUHU216HW,2013-02-26 18:16:00,
2013-02-26 13:17:00,33.3,29.3,29.77,NE,45,1.8,5.1,85,0.04,,,0.10,WUHU216HW,2013-02-26 18:17:00,
2013-02-26 13:18:00,33.3,29.5,29.77,NNW,338,1.8,5.1,86,0.04,,,0.10,WUHU216HW,2013-02-26 18:18:00,
2013-02-26 13:21:00,33.3,29.5,29.77,NNW,338,3.1,4.9,86,0.04,,,0.10,WUHU216HW,2013-02-26 18:21:00,
2013-02-26 13:22:00,33.5,29.7,29.77,North,0,3.1,4.9,86,0.04,,,0.10,WUHU216HW,2013-02-26 18:22:00,
2013-02-26 13:23:00,33.3,29.5,29.76,NW,315,2.5,4.0,86,0.04,,,0.10,WUHU216HW,2013-02-26 18:23:00,
2013-02-26 13:26:00,33.3,29.5,29.76,North,0,3.4,4.9,86,0.03,,,0.10,WUHU216HW,2013-02-26 18:26:00,
2013-02-26 13:27:00,33.3,29.5,29.76,North,0,1.1,4.9,86,0.03,,,0.10,WUHU216HW,2013-02-26 18:27:00,
2013-02-26 13:29:00,33.5,29.7,29.76,NNE,23,2.9,4.9,86,0.03,,,0.10,WUHU216HW,2013-02-26 18:29:00,
2013-02-26 13:32:00,33.3,29.8,29.75,ENE,68,0.9,5.4,87,0.03,,,0.10,WUHU216HW,2013-02-26 18:32:00,
2013-02-26 13:33:00,33.5,30.0,29.75,North,0,1.1,5.4,87,0.02,,,0.10,WUHU216HW,2013-02-26 18:33:00,
2013-02-26 13:34:00,33.5,30.0,29.75,North,0,1.1,5.4,87,0.02,,,0.10,WUHU216HW,2013-02-26 18:34:00,
2013-02-26 13:37:00,33.5,29.7,29.75,NNE,23,2.2,8.1,86,0.03,,,0.11,WUHU216HW,2013-02-26 18:37:00,
2013-02-26 13:38:00,33.5,29.7,29.75,NNE,23,2.7,8.1,86,0.03,,,0.11,WUHU216HW,2013-02-26 18:38:00,
2013-02-26 13:39:00,33.5,29.7,29.75,NNE,23,2.7,8.1,86,0.03,,,0.11,WUHU216HW,2013-02-26 18:39:00,
2013-02-26 13:43:00,33.5,29.7,29.75,NNE,23,2.5,8.1,86,0.03,,,0.11,WUHU216HW,2013-02-26 18:43:00,
2013-02-26 13:44:00,33.3,29.5,29.75,NNE,23,5.4,8.1,86,0.03,,,0.11,WUHU216HW,2013-02-26 18:44:00,
2013-02-26 13:48:00,33.1,29.6,29.74,ENE,68,4.7,7.2,87,0.02,,,0.11,WUHU216HW,2013-02-26 18:48:00,
2013-02-26 13:49:00,33.1,29.6,29.74,ENE,68,4.7,7.2,87,0.02,,,0.11,WUHU216HW,2013-02-26 18:49:00,
2013-02-26 13:50:00,33.1,29.6,29.74,NNE,23,2.5,7.2,87,0.02,,,0.11,WUHU216HW,2013-02-26 18:50:00,
2013-02-26 13:54:00,33.3,30.1,29.73,NNE,23,1.8,7.2,88,0.02,,,0.11,WUHU216HW,2013-02-26 18:54:00,
2013-02-26 13:55:00,33.3,30.1,29.73,NNE,23,4.0,7.2,88,0.02,,,0.11,WUHU216HW,2013-02-26 18:55:00,
2013-02-26 14:00:00,33.5,30.2,29.72,NNE,23,1.3,4.7,88,0.02,,,0.11,WUHU216HW,2013-02-26 19:00:00,
2013-02-26 14:02:00,33.3,30.1,29.72,NNE,23,5.8,5.8,88,0.02,,,0.11,WUHU216HW,2013-02-26 19:02:00,
2013-02-26 14:05:00,33.3,30.1,29.72,NNE,23,1.1,5.8,88,0.01,,,0.11,WUHU216HW,2013-02-26 19:05:00,
2013-02-26 14:06:00,33.3,30.1,29.72,NNE,23,1.1,5.8,88,0.01,,,0.11,WUHU216HW,2013-02-26 19:06:00,
2013-02-26 14:07:00,33.3,30.1,29.72,NNE,23,2.2,6.9,88,0.01,,,0.11,WUHU216HW,2013-02-26 19:07:00,
2013-02-26 14:11:00,33.1,29.9,29.71,NNE,23,2.5,6.9,88,0.01,,,0.11,WUHU216HW,2013-02-26 19:11:00,
2013-02-26 14:12:00,33.1,29.9,29.71,North,0,0.7,6.9,88,0.01,,,0.11,WUHU216HW,2013-02-26 19:12:00,
2013-02-26 14:16:00,33.3,30.1,29.72,ENE,68,1.1,4.0,88,0.01,,,0.11,WUHU216HW,2013-02-26 19:16:00,
2013-02-26 14:17:00,33.1,30.3,29.72,NW,315,2.9,4.0,89,0.02,,,0.11,WUHU216HW,2013-02-26 19:17:00,
2013-02-26 14:21:00,33.3,30.3,29.71,NE,45,1.1,3.1,89,0.02,,,0.12,WUHU216HW,2013-02-26 19:21:00,
2013-02-26 14:23:00,33.3,30.3,29.71,NNW,338,3.1,3.1,89,0.02,,,0.12,WUHU216HW,2013-02-26 19:23:00,
2013-02-26 14:26:00,33.3,30.3,29.70,NNE,23,5.4,8.7,89,0.03,,,0.12,WUHU216HW,2013-02-26 19:26:00,
2013-02-26 14:28:00,33.3,30.3,29.70,NNE,23,3.1,8.7,89,0.03,,,0.13,WUHU216HW,2013-02-26 19:28:00,
2013-02-26 14:29:00,33.1,30.3,29.70,NNE,23,2.2,8.7,89,0.03,,,0.13,WUHU216HW,2013-02-26 19:29:00,
2013-02-26 14:32:00,33.1,30.3,29.69,NNE,23,6.3,8.7,89,0.04,,,0.13,WUHU216HW,2013-02-26 19:32:00,
2013-02-26 14:33:00,33.3,30.3,29.69,North,0,3.1,8.7,89,0.04,,,0.14,WUHU216HW,2013-02-26 19:33:00,
2013-02-26 14:34:00,33.3,30.3,29.69,North,0,3.1,8.7,89,0.04,,,0.14,WUHU216HW,2013-02-26 19:34:00,
2013-02-26 14:37:00,33.3,30.3,29.69,NNW,338,4.7,7.4,89,0.03,,,0.14,WUHU216HW,2013-02-26 19:37:00,
2013-02-26 14:38:00,33.3,30.3,29.69,NNE,23,2.0,7.4,89,0.03,,,0.14,WUHU216HW,2013-02-26 19:38:00,
2013-02-26 14:39:00,33.3,30.3,29.69,NNE,23,2.0,7.4,89,0.03,,,0.14,WUHU216HW,2013-02-26 19:39:00,
2013-02-26 14:43:00,33.3,30.7,29.69,NNE,23,5.1,6.3,90,0.04,,,0.15,WUHU216HW,2013-02-26 19:43:00,
2013-02-26 14:44:00,33.5,30.8,29.69,NNE,23,2.9,6.3,90,0.04,,,0.15,WUHU216HW,2013-02-26 19:44:00,
2013-02-26 14:45:00,33.5,30.8,29.69,NNE,23,2.9,6.3,90,0.04,,,0.15,WUHU216HW,2013-02-26 19:45:00,
2013-02-26 14:47:00,33.3,30.7,29.69,NE,45,4.3,6.3,90,0.05,,,0.15,WUHU216HW,2013-02-26 19:47:00,
2013-02-26 14:49:00,33.5,30.8,29.68,ESE,113,1.8,5.1,90,0.06,,,0.16,WUHU216HW,2013-02-26 19:49:00,
2013-02-26 14:50:00,33.5,30.8,29.68,ESE,113,1.8,5.1,90,0.06,,,0.16,WUHU216HW,2013-02-26 19:50:00,
2013-02-26 14:52:00,33.3,30.7,29.68,NNE,23,2.9,5.1,90,0.06,,,0.17,WUHU216HW,2013-02-26 19:52:00,
2013-02-26 14:54:00,33.3,30.7,29.67,NE,45,4.9,4.9,90,0.07,,,0.18,WUHU216HW,2013-02-26 19:54:00,
2013-02-26 14:55:00,33.3,30.7,29.67,NE,45,4.9,4.9,90,0.07,,,0.18,WUHU216HW,2013-02-26 19:55:00,
2013-02-26 14:56:00,33.3,30.7,29.67,NNE,23,3.1,4.9,90,0.07,,,0.18,WUHU216HW,2013-02-26 19:56:00,
2013-02-26 14:57:00,33.3,30.7,29.66,NNE,23,2.5,4.9,90,0.08,,,0.18,WUHU216HW,2013-02-26 19:57:00,
2013-02-26 15:00:00,33.3,30.7,29.67,NNW,338,1.6,4.9,90,0.08,,,0.19,WUHU216HW,2013-02-26 20:00:00,
2013-02-26 15:01:00,33.3,30.7,29.66,ENE,68,0.9,4.9,90,0.09,,,0.19,WUHU216HW,2013-02-26 20:01:00,
2013-02-26 15:03:00,33.5,30.8,29.66,ENE,68,3.8,4.9,90,0.09,,,0.20,WUHU216HW,2013-02-26 20:03:00,
2013-02-26 15:06:00,33.3,30.7,29.67,North,0,4.3,6.3,90,0.10,,,0.20,WUHU216HW,2013-02-26 20:06:00,
2013-02-26 15:07:00,33.5,31.1,29.67,ENE,68,7.8,7.8,91,0.10,,,0.21,WUHU216HW,2013-02-26 20:07:00,
2013-02-26 15:08:00,33.5,31.1,29.67,ENE,68,7.8,7.8,91,0.10,,,0.21,WUHU216HW,2013-02-26 20:08:00,
2013-02-26 15:11:00,33.5,31.1,29.67,NE,45,1.8,7.8,91,0.10,,,0.21,WUHU216HW,2013-02-26 20:11:00,
2013-02-26 15:12:00,33.5,31.1,29.67,North,0,5.1,7.8,91,0.10,,,0.21,WUHU216HW,2013-02-26 20:12:00,
2013-02-26 15:13:00,33.5,31.1,29.67,ESE,113,3.4,7.8,91,0.11,,,0.21,WUHU216HW,2013-02-26 20:13:00,
2013-02-26 15:15:00,33.5,31.1,29.67,NE,45,2.7,7.8,91,0.11,,,0.22,WUHU216HW,2013-02-26 20:15:00,
2013-02-26 15:16:00,33.5,31.1,29.66,ESE,113,2.5,7.8,91,0.10,,,0.22,WUHU216HW,2013-02-26 20:16:00,
2013-02-26 15:18:00,33.5,31.1,29.66,NNE,23,2.0,6.9,91,0.11,,,0.23,WUHU216HW,2013-02-26 20:18:00,
2013-02-26 15:19:00,33.5,31.1,29.66,NE,45,1.8,6.9,91,0.11,,,0.23,WUHU216HW,2013-02-26 20:19:00,
2013-02-26 15:20:00,33.5,31.1,29.66,NE,45,4.7,5.4,91,0.11,,,0.23,WUHU216HW,2013-02-26 20:20:00,
2013-02-26 15:22:00,33.5,31.1,29.66,North,0,2.0,5.4,91,0.12,,,0.23,WUHU216HW,2013-02-26 20:22:00,
2013-02-26 15:24:00,33.5,31.1,29.66,NNW,338,3.6,5.4,91,0.12,,,0.24,WUHU216HW,2013-02-26 20:24:00,
2013-02-26 15:25:00,33.5,31.1,29.66,NE,45,4.9,4.9,91,0.12,,,0.24,WUHU216HW,2013-02-26 20:25:00,
2013-02-26 15:29:00,33.5,31.1,29.64,ENE,68,4.9,4.9,91,0.11,,,0.26,WUHU216HW,2013-02-26 20:29:00,
2013-02-26 15:30:00,33.7,31.2,29.64,NNE,23,6.3,6.3,91,0.12,,,0.26,WUHU216HW,2013-02-26 20:30:00,
2013-02-26 15:31:00,33.7,31.2,29.64,NE,45,2.5,6.3,91,0.12,,,0.26,WUHU216HW,2013-02-26 20:31:00,
2013-02-26 15:34:00,33.7,31.2,29.64,NNE,23,4.9,6.3,91,0.12,,,0.26,WUHU216HW,2013-02-26 20:34:00,
2013-02-26 15:36:00,33.7,31.2,29.64,NNE,23,3.4,6.3,91,0.12,,,0.26,WUHU216HW,2013-02-26 20:36:00,
2013-02-26 15:37:00,33.7,31.2,29.64,North,0,3.4,6.3,91,0.12,,,0.26,WUHU216HW,2013-02-26 20:37:00,
2013-02-26 15:39:00,33.7,31.2,29.64,NNE,23,4.3,6.3,91,0.13,,,0.28,WUHU216HW,2013-02-26 20:39:00,
2013-02-26 15:41:00,33.7,31.2,29.64,NNW,338,4.0,5.1,91,0.12,,,0.28,WUHU216HW,2013-02-26 20:41:00,
2013-02-26 15:43:00,33.7,31.2,29.63,NW,315,2.0,5.1,91,0.12,,,0.28,WUHU216HW,2013-02-26 20:43:00,
2013-02-26 15:44:00,33.7,31.2,29.63,NE,45,2.7,5.1,91,0.12,,,0.28,WUHU216HW,2013-02-26 20:44:00,
2013-02-26 15:45:00,33.7,31.2,29.63,NE,45,2.7,5.1,91,0.12,,,0.28,WUHU216HW,2013-02-26 20:45:00,
2013-02-26 15:47:00,33.7,31.2,29.63,North,0,6.3,6.3,91,0.13,,,0.29,WUHU216HW,2013-02-26 20:47:00,
2013-02-26 15:48:00,33.8,31.7,29.63,East,90,4.7,6.3,92,0.13,,,0.29,WUHU216HW,2013-02-26 20:48:00,
2013-02-26 15:50:00,33.7,31.2,29.63,NNE,23,2.2,6.3,91,0.12,,,0.29,WUHU216HW,2013-02-26 20:50:00,
2013-02-26 15:52:00,33.7,31.5,29.64,NE,45,1.8,6.3,92,0.11,,,0.29,WUHU216HW,2013-02-26 20:52:00,
2013-02-26 15:53:00,33.7,31.5,29.64,NE,45,1.8,6.3,92,0.11,,,0.29,WUHU216HW,2013-02-26 20:53:00,
2013-02-26 15:55:00,33.7,31.5,29.64,NE,45,2.2,6.3,92,0.12,,,0.29,WUHU216HW,2013-02-26 20:55:00,
2013-02-26 15:58:00,33.8,31.7,29.63,North,0,2.5,5.1,92,0.12,,,0.31,WUHU216HW,2013-02-26 20:58:00,
2013-02-26 15:59:00,33.8,31.7,29.63,North,0,2.5,5.1,92,0.12,,,0.31,WUHU216HW,2013-02-26 20:59:00,
2013-02-26 16:00:00,33.8,31.7,29.62,NW,315,4.0,5.1,92,0.12,,,0.31,WUHU216HW,2013-02-26 21:00:00,
2013-02-26 16:04:00,33.8,31.7,29.61,NW,315,1.8,5.1,92,0.10,,,0.31,WUHU216HW,2013-02-26 21:04:00,
2013-02-26 16:05:00,33.8,31.7,29.61,ENE,68,2.5,5.1,92,0.11,,,0.31,WUHU216HW,2013-02-26 21:05:00,
2013-02-26 16:06:00,33.8,31.7,29.61,ENE,68,2.5,5.1,92,0.11,,,0.31,WUHU216HW,2013-02-26 21:06:00,
2013-02-26 16:10:00,33.8,31.7,29.61,NNE,23,2.5,4.9,92,0.13,,,0.33,WUHU216HW,2013-02-26 21:10:00,
2013-02-26 16:11:00,33.8,31.7,29.61,ENE,68,3.1,4.9,92,0.14,,,0.35,WUHU216HW,2013-02-26 21:11:00,
2013-02-26 16:12:00,34.0,31.9,29.61,North,0,1.1,4.9,92,0.13,,,0.35,WUHU216HW,2013-02-26 21:12:00,
2013-02-26 16:16:00,33.8,31.7,29.61,NW,315,0.9,7.6,92,0.14,,,0.37,WUHU216HW,2013-02-26 21:16:00,
2013-02-26 16:17:00,34.0,31.9,29.61,North,0,1.8,7.6,92,0.13,,,0.37,WUHU216HW,2013-02-26 21:17:00,
2013-02-26 16:18:00,34.0,31.9,29.61,North,0,1.8,7.6,92,0.13,,,0.37,WUHU216HW,2013-02-26 21:18:00,
2013-02-26 16:21:00,34.0,31.9,29.61,NNE,23,4.7,7.6,92,0.13,,,0.37,WUHU216HW,2013-02-26 21:21:00,
2013-02-26 16:23:00,34.0,31.9,29.61,NE,45,2.0,7.6,92,0.13,,,0.38,WUHU216HW,2013-02-26 21:23:00,
2013-02-26 16:24:00,34.0,31.9,29.61,ENE,68,0.7,5.1,92,0.13,,,0.38,WUHU216HW,2013-02-26 21:24:00,
2013-02-26 16:26:00,34.0,31.9,29.60,NNE,23,4.7,4.7,92,0.12,,,0.38,WUHU216HW,2013-02-26 21:26:00,
2013-02-26 16:29:00,34.0,31.9,29.60,North,0,1.8,4.7,92,0.11,,,0.38,WUHU216HW,2013-02-26 21:29:00,
2013-02-26 16:32:00,34.2,32.0,29.60,WNW,293,0.9,4.9,92,0.12,,,0.39,WUHU216HW,2013-02-26 21:32:00,
2013-02-26 16:33:00,34.2,32.0,29.60,East,90,1.6,4.9,92,0.12,,,0.39,WUHU216HW,2013-02-26 21:33:00,
2013-02-26 16:34:00,34.2,32.0,29.60,ESE,113,0.9,4.9,92,0.12,,,0.39,WUHU216HW,2013-02-26 21:34:00,
2013-02-26 16:37:00,34.2,32.0,29.60,NNE,23,4.0,6.0,92,0.11,,,0.39,WUHU216HW,2013-02-26 21:37:00,
2013-02-26 16:38:00,34.2,32.0,29.59,North,0,2.5,6.0,92,0.11,,,0.39,WUHU216HW,2013-02-26 21:38:00,
2013-02-26 16:40:00,34.2,32.0,29.59,NNE,23,3.4,6.0,92,0.11,,,0.39,WUHU216HW,2013-02-26 21:40:00,
2013-02-26 16:43:00,34.2,32.0,29.58,North,0,2.7,6.0,92,0.11,,,0.40,WUHU216HW,2013-02-26 21:43:00,
2013-02-26 16:44:00,34.2,32.0,29.58,West,270,2.2,6.0,92,0.11,,,0.40,WUHU216HW,2013-02-26 21:44:00,
2013-02-26 16:45:00,34.2,32.0,29.57,NE,45,1.8,6.0,92,0.11,,,0.40,WUHU216HW,2013-02-26 21:45:00,
2013-02-26 16:48:00,34.2,32.0,29.57,NE,45,2.5,4.0,92,0.12,,,0.41,WUHU216HW,2013-02-26 21:48:00,
2013-02-26 16:49:00,34.2,32.0,29.57,NNE,23,4.7,4.7,92,0.12,,,0.42,WUHU216HW,2013-02-26 21:49:00,
2013-02-26 16:51:00,34.2,32.0,29.57,North,0,5.6,5.6,92,0.12,,,0.42,WUHU216HW,2013-02-26 21:51:00,
2013-02-26 16:53:00,34.2,32.0,29.57,North,0,4.0,5.6,92,0.11,,,0.42,WUHU216HW,2013-02-26 21:53:00,
2013-02-26 16:54:00,34.2,32.0,29.57,NNE,23,5.1,5.6,92,0.11,,,0.42,WUHU216HW,2013-02-26 21:54:00,
2013-02-26 16:56:00,34.2,32.0,29.57,NNE,23,6.3,6.3,92,0.11,,,0.42,WUHU216HW,2013-02-26 21:56:00,
2013-02-26 16:57:00,34.2,32.0,29.56,NNW,338,2.0,6.3,92,0.10,,,0.42,WUHU216HW,2013-02-26 21:57:00,
2013-02-26 16:59:00,34.4,32.2,29.56,NNE,23,2.7,6.3,92,0.10,,,0.42,WUHU216HW,2013-02-26 21:59:00,
2013-02-26 17:00:00,34.4,32.2,29.56,SSW,203,2.2,6.3,92,0.11,,,0.43,WUHU216HW,2013-02-26 22:00:00,
2013-02-26 17:01:00,34.4,32.2,29.56,ENE,68,6.3,6.3,92,0.11,,,0.43,WUHU216HW,2013-02-26 22:01:00,
2013-02-26 17:02:00,34.4,32.2,29.56,North,0,4.0,6.3,92,0.11,,,0.43,WUHU216HW,2013-02-26 22:02:00,
2013-02-26 17:04:00,34.4,32.2,29.56,North,0,6.9,7.6,92,0.09,,,0.43,WUHU216HW,2013-02-26 22:04:00,
2013-02-26 17:05:00,34.4,32.2,29.56,NNE,23,5.4,7.6,92,0.09,,,0.43,WUHU216HW,2013-02-26 22:05:00,
2013-02-26 17:06:00,34.6,32.4,29.56,SSW,203,2.0,7.6,92,0.09,,,0.43,WUHU216HW,2013-02-26 22:06:00,
2013-02-26 17:07:00,34.4,32.2,29.56,NNW,338,2.5,7.6,92,0.09,,,0.43,WUHU216HW,2013-02-26 22:07:00,
2013-02-26 17:09:00,34.4,32.2,29.57,NNW,338,2.2,7.6,92,0.07,,,0.43,WUHU216HW,2013-02-26 22:09:00,
2013-02-26 17:10:00,34.6,32.4,29.57,North,0,1.6,7.6,92,0.08,,,0.43,WUHU216HW,2013-02-26 22:10:00,
2013-02-26 17:11:00,34.6,32.4,29.57,NW,315,1.1,7.6,92,0.08,,,0.44,WUHU216HW,2013-02-26 22:11:00,
2013-02-26 17:12:00,34.6,32.4,29.57,NE,45,0.7,7.6,92,0.07,,,0.44,WUHU216HW,2013-02-26 22:12:00,
2013-02-26 17:14:00,34.6,32.4,29.57,North,0,5.6,5.6,92,0.08,,,0.44,WUHU216HW,2013-02-26 22:14:00,
2013-02-26 17:15:00,34.7,32.6,29.56,West,270,2.2,5.6,92,0.08,,,0.45,WUHU216HW,2013-02-26 22:15:00,
2013-02-26 17:17:00,34.7,32.6,29.56,NNE,23,2.2,5.6,92,0.07,,,0.45,WUHU216HW,2013-02-26 22:17:00,
2013-02-26 17:18:00,34.7,32.6,29.56,NE,45,0.7,5.6,92,0.08,,,0.45,WUHU216HW,2013-02-26 22:18:00,
2013-02-26 17:19:00,34.7,32.6,29.56,NE,45,2.0,5.6,92,0.08,,,0.46,WUHU216HW,2013-02-26 22:19:00,
2013-02-26 17:20:00,34.7,32.6,29.56,NE,45,5.1,5.6,92,0.09,,,0.46,WUHU216HW,2013-02-26 22:20:00,
2013-02-26 17:22:00,34.7,32.6,29.55,East,90,2.2,5.6,92,0.09,,,0.47,WUHU216HW,2013-02-26 22:22:00,
2013-02-26 17:23:00,34.7,32.6,29.55,North,0,4.0,5.6,92,0.09,,,0.47,WUHU216HW,2013-02-26 22:23:00,
2013-02-26 17:25:00,34.7,32.6,29.54,North,0,3.4,5.8,92,0.10,,,0.48,WUHU216HW,2013-02-26 22:25:00,
2013-02-26 17:27:00,34.9,32.8,29.54,NNE,23,6.3,7.6,92,0.11,,,0.48,WUHU216HW,2013-02-26 22:27:00,
2013-02-26 17:29:00,34.9,32.8,29.53,NNW,338,1.8,7.6,92,0.10,,,0.49,WUHU216HW,2013-02-26 22:29:00,
2013-02-26 17:30:00,34.9,32.8,29.53,NNW,338,1.8,7.6,92,0.11,,,0.49,WUHU216HW,2013-02-26 22:30:00,
2013-02-26 17:31:00,34.9,32.8,29.53,NNW,338,1.8,7.6,92,0.11,,,0.49,WUHU216HW,2013-02-26 22:31:00,
2013-02-26 17:32:00,34.9,32.8,29.53,ENE,68,4.0,7.6,92,0.11,,,0.50,WUHU216HW,2013-02-26 22:32:00,
2013-02-26 17:34:00,34.9,32.8,29.53,East,90,4.0,7.6,92,0.11,,,0.50,WUHU216HW,2013-02-26 22:34:00,
2013-02-26 17:36:00,34.7,32.6,29.53,NNE,23,5.8,7.6,92,0.11,,,0.50,WUHU216HW,2013-02-26 22:36:00,
2013-02-26 17:37:00,34.7,32.6,29.54,East,90,1.1,6.3,92,0.11,,,0.50,WUHU216HW,2013-02-26 22:37:00,
2013-02-26 17:38:00,34.7,32.6,29.53,ENE,68,2.0,5.8,92,0.11,,,0.50,WUHU216HW,2013-02-26 22:38:00,
2013-02-26 17:39:00,34.7,32.6,29.53,SE,135,2.5,5.8,92,0.11,,,0.50,WUHU216HW,2013-02-26 22:39:00,
2013-02-26 17:41:00,34.9,32.8,29.53,ENE,68,7.6,7.6,92,0.09,,,0.50,WUHU216HW,2013-02-26 22:41:00,
2013-02-26 17:42:00,34.9,32.8,29.53,NE,45,4.3,7.6,92,0.09,,,0.50,WUHU216HW,2013-02-26 22:42:00,
2013-02-26 17:44:00,34.9,32.8,29.53,NNE,23,11.4,11.4,92,0.10,,,0.51,WUHU216HW,2013-02-26 22:44:00,
2013-02-26 17:46:00,34.9,32.8,29.53,NNE,23,6.3,11.4,92,0.10,,,0.51,WUHU216HW,2013-02-26 22:46:00,
2013-02-26 17:48:00,34.9,32.8,29.53,NNW,338,5.6,11.4,92,0.10,,,0.51,WUHU216HW,2013-02-26 22:48:00,
2013-02-26 17:50:00,34.9,32.8,29.54,NNE,23,3.1,11.4,92,0.09,,,0.51,WUHU216HW,2013-02-26 22:50:00,
2013-02-26 17:51:00,34.9,32.8,29.54,SSE,158,3.4,11.4,92,0.10,,,0.51,WUHU216HW,2013-02-26 22:51:00,
2013-02-26 17:53:00,34.9,32.8,29.55,North,0,2.5,11.4,92,0.11,,,0.53,WUHU216HW,2013-02-26 22:53:00,
2013-02-26 17:55:00,34.9,32.8,29.56,North,0,5.6,5.6,92,0.11,,,0.53,WUHU216HW,2013-02-26 22:55:00,
2013-02-26 17:56:00,34.9,32.8,29.56,North,0,5.6,5.6,92,0.11,,,0.53,WUHU216HW,2013-02-26 22:56:00,
2013-02-26 17:57:00,35.1,32.9,29.55,North,0,4.0,5.6,92,0.10,,,0.53,WUHU216HW,2013-02-26 22:57:00,
2013-02-26 17:58:00,35.3,33.1,29.54,NNE,23,4.0,5.6,92,0.11,,,0.53,WUHU216HW,2013-02-26 22:58:00,
2013-02-26 18:01:00,35.3,33.1,29.54,ENE,68,2.5,6.3,92,0.12,,,0.54,WUHU216HW,2013-02-26 23:01:00,
2013-02-26 18:02:00,35.3,33.1,29.53,North,0,4.3,6.3,92,0.12,,,0.55,WUHU216HW,2013-02-26 23:02:00,
2013-02-26 18:04:00,35.3,33.1,29.53,East,90,4.3,6.3,92,0.12,,,0.55,WUHU216HW,2013-02-26 23:04:00,
2013-02-26 18:06:00,35.3,33.1,29.53,NNE,23,5.6,6.3,92,0.13,,,0.56,WUHU216HW,2013-02-26 23:06:00,
2013-02-26 18:07:00,35.3,33.1,29.53,NNE,23,1.6,6.3,92,0.14,,,0.56,WUHU216HW,2013-02-26 23:07:00,
2013-02-26 18:08:00,35.5,33.3,29.53,North,0,3.4,6.3,92,0.13,,,0.57,WUHU216HW,2013-02-26 23:08:00,
2013-02-26 18:09:00,35.5,33.3,29.53,NNE,23,2.7,6.3,92,0.13,,,0.57,WUHU216HW,2013-02-26 23:09:00,
2013-02-26 18:12:00,35.5,33.3,29.54,NNE,23,5.4,5.6,92,0.13,,,0.57,WUHU216HW,2013-02-26 23:12:00,
2013-02-26 18:14:00,35.5,33.3,29.55,North,0,5.4,5.6,92,0.13,,,0.57,WUHU216HW,2013-02-26 23:14:00,
2013-02-26 18:17:00,35.6,33.5,29.56,NNE,23,1.3,5.4,92,0.12,,,0.58,WUHU216HW,2013-02-26 23:17:00,
2013-02-26 18:18:00,35.6,33.5,29.56,NE,45,2.9,5.4,92,0.13,,,0.59,WUHU216HW,2013-02-26 23:18:00,
2013-02-26 18:19:00,35.6,33.5,29.56,North,0,2.9,5.4,92,0.13,,,0.60,WUHU216HW,2013-02-26 23:19:00,
2013-02-26 18:20:00,35.6,33.5,29.55,North,0,2.5,5.4,92,0.12,,,0.60,WUHU216HW,2013-02-26 23:20:00,
2013-02-26 18:22:00,35.6,33.5,29.55,NNE,23,2.0,5.4,92,0.13,,,0.61,WUHU216HW,2013-02-26 23:22:00,
2013-02-26 18:23:00,35.6,33.5,29.55,North,0,0.4,5.4,92,0.13,,,0.61,WUHU216HW,2013-02-26 23:23:00,
2013-02-26 18:25:00,35.6,33.5,29.56,WSW,248,1.1,3.4,92,0.13,,,0.61,WUHU216HW,2013-02-26 23:25:00,
2013-02-26 18:27:00,35.6,33.5,29.56,NNE,23,4.0,4.0,92,0.14,,,0.63,WUHU216HW,2013-02-26 23:27:00,
2013-02-26 18:28:00,35.6,33.5,29.56,North,0,2.0,4.0,92,0.14,,,0.63,WUHU216HW,2013-02-26 23:28:00,
2013-02-26 18:30:00,35.6,33.5,29.55,NNE,23,0.9,4.0,92,0.14,,,0.64,WUHU216HW,2013-02-26 23:30:00,
2013-02-26 18:32:00,35.6,33.5,29.56,NNE,23,1.8,4.0,92,0.14,,,0.64,WUHU216HW,2013-02-26 23:32:00,
2013-02-26 18:33:00,35.6,33.5,29.56,North,0,3.6,4.0,92,0.14,,,0.64,WUHU216HW,2013-02-26 23:33:00,
2013-02-26 18:36:00,35.6,33.5,29.56,East,90,0.7,4.0,92,0.15,,,0.65,WUHU216HW,2013-02-26 23:36:00,
2013-02-26 18:37:00,35.8,33.7,29.55,NNW,338,2.5,3.6,92,0.15,,,0.65,WUHU216HW,2013-02-26 23:37:00,
2013-02-26 18:38:00,35.8,33.7,29.55,ENE,68,1.6,3.6,92,0.15,,,0.65,WUHU216HW,2013-02-26 23:38:00,
2013-02-26 18:39:00,35.8,33.7,29.54,ENE,68,2.9,3.6,92,0.16,,,0.65,WUHU216HW,2013-02-26 23:39:00,
2013-02-26 18:41:00,35.8,33.7,29.55,East,90,2.7,3.6,92,0.16,,,0.66,WUHU216HW,2013-02-26 23:41:00,
2013-02-26 18:43:00,35.8,33.7,29.56,NNE,23,0.4,2.9,92,0.16,,,0.67,WUHU216HW,2013-02-26 23:43:00,
2013-02-26 18:44:00,35.8,33.7,29.56,NNE,23,0.4,2.9,92,0.16,,,0.67,WUHU216HW,2013-02-26 23:44:00,
2013-02-26 18:45:00,36.0,33.8,29.56,ENE,68,0.4,2.9,92,0.17,,,0.67,WUHU216HW,2013-02-26 23:45:00,
2013-02-26 18:47:00,36.0,33.8,29.57,North,0,2.7,2.9,92,0.17,,,0.68,WUHU216HW,2013-02-26 23:47:00,
2013-02-26 18:48:00,36.0,33.8,29.56,NNW,338,1.8,4.0,92,0.16,,,0.68,WUHU216HW,2013-02-26 23:48:00,
2013-02-26 18:49:00,36.0,33.8,29.56,NNW,338,1.1,4.0,92,0.16,,,0.69,WUHU216HW,2013-02-26 23:49:00,
2013-02-26 18:50:00,36.0,33.8,29.56,North,0,1.1,4.0,92,0.16,,,0.69,WUHU216HW,2013-02-26 23:50:00,
2013-02-26 18:52:00,36.0,33.8,29.56,NE,45,1.1,4.0,92,0.17,,,0.70,WUHU216HW,2013-02-26 23:52:00,
2013-02-26 18:53:00,36.0,33.8,29.56,NNE,23,1.3,4.0,92,0.17,,,0.70,WUHU216HW,2013-02-26 23:53:00,
2013-02-26 18:55:00,36.0,33.8,29.56,NNE,23,0.9,4.0,92,0.17,,,0.70,WUHU216HW,2013-02-26 23:55:00,
2013-02-26 18:56:00,36.0,33.8,29.56,NE,45,1.3,4.0,92,0.18,,,0.70,WUHU216HW,2013-02-26 23:56:00,
2013-02-26 18:57:00,36.0,33.8,29.56,NNW,338,0.9,1.8,92,0.17,,,0.71,WUHU216HW,2013-02-26 23:57:00,
2013-02-26 18:59:00,36.0,33.8,29.56,NNE,23,3.6,3.6,92,0.17,,,0.71,WUHU216HW,2013-02-26 23:59:00,
2013-02-26 19:00:00,36.0,33.8,29.56,ENE,68,3.6,3.6,92,0.17,,,0.71,WUHU216HW,2013-02-27 00:00:00,
2013-02-26 19:01:00,36.0,33.8,29.56,NE,45,3.1,3.6,92,0.17,,,0.71,WUHU216HW,2013-02-27 00:01:00,
2013-02-26 19:03:00,36.0,33.8,29.55,NE,45,6.9,6.9,92,0.17,,,0.72,WUHU216HW,2013-02-27 00:03:00,
2013-02-26 19:05:00,36.0,33.8,29.54,NE,45,3.4,6.9,92,0.15,,,0.72,WUHU216HW,2013-02-27 00:05:00,
2013-02-26 19:06:00,36.0,33.8,29.55,WNW,293,1.6,6.9,92,0.15,,,0.72,WUHU216HW,2013-02-27 00:06:00,
2013-02-26 19:08:00,36.0,33.8,29.56,NW,315,4.7,6.9,92,0.15,,,0.72,WUHU216HW,2013-02-27 00:08:00,
2013-02-26 19:10:00,36.0,33.8,29.56,North,0,4.7,6.9,92,0.15,,,0.72,WUHU216HW,2013-02-27 00:10:00,
2013-02-26 19:11:00,36.0,33.8,29.56,NE,45,3.4,6.9,92,0.15,,,0.72,WUHU216HW,2013-02-27 00:11:00,
2013-02-26 19:13:00,36.0,33.8,29.56,ENE,68,1.1,4.7,92,0.14,,,0.72,WUHU216HW,2013-02-27 00:13:00,
2013-02-26 19:15:00,36.0,33.8,29.55,ENE,68,2.2,4.7,92,0.14,,,0.72,WUHU216HW,2013-02-27 00:15:00,
2013-02-26 19:16:00,36.0,33.8,29.55,ENE,68,2.2,4.7,92,0.14,,,0.72,WUHU216HW,2013-02-27 00:16:00,
2013-02-26 19:17:00,36.0,33.8,29.55,North,0,3.6,4.7,92,0.12,,,0.72,WUHU216HW,2013-02-27 00:17:00,
2013-02-26 19:18:00,36.0,33.8,29.55,NE,45,3.4,4.7,92,0.12,,,0.72,WUHU216HW,2013-02-27 00:18:00,
2013-02-26 19:20:00,36.0,33.8,29.55,North,0,1.3,3.6,92,0.11,,,0.72,WUHU216HW,2013-02-27 00:20:00,
2013-02-26 19:21:00,36.0,33.8,29.55,ENE,68,3.1,3.6,92,0.11,,,0.73,WUHU216HW,2013-02-27 00:21:00,
2013-02-26 19:22:00,36.0,33.8,29.56,NNW,338,1.6,3.6,92,0.11,,,0.73,WUHU216HW,2013-02-27 00:22:00,
2013-02-26 19:24:00,36.0,33.8,29.56,NE,45,3.4,3.6,92,0.11,,,0.73,WUHU216HW,2013-02-27 00:24:00,
2013-02-26 19:26:00,36.0,33.8,29.55,NE,45,2.0,3.6,92,0.10,,,0.73,WUHU216HW,2013-02-27 00:26:00,
2013-02-26 19:28:00,36.2,34.0,29.55,North,0,1.3,3.6,92,0.10,,,0.73,WUHU216HW,2013-02-27 00:28:00,
2013-02-26 19:30:00,36.2,34.0,29.55,NNE,23,4.0,4.0,92,0.09,,,0.73,WUHU216HW,2013-02-27 00:30:00,
2013-02-26 19:31:00,36.2,34.0,29.55,NNW,338,2.2,4.0,92,0.09,,,0.73,WUHU216HW,2013-02-27 00:31:00,
2013-02-26 19:33:00,36.2,34.0,29.55,NNE,23,2.0,4.0,92,0.08,,,0.73,WUHU216HW,2013-02-27 00:33:00,
2013-02-26 19:35:00,36.2,34.0,29.55,NNW,338,3.4,4.0,92,0.08,,,0.73,WUHU216HW,2013-02-27 00:35:00,
2013-02-26 19:36:00,36.2,34.0,29.55,NE,45,2.9,4.7,92,0.07,,,0.73,WUHU216HW,2013-02-27 00:36:00,
2013-02-26 19:38:00,36.2,34.0,29.54,NNW,338,2.7,5.1,92,0.07,,,0.73,WUHU216HW,2013-02-27 00:38:00,
2013-02-26 19:40:00,36.2,34.0,29.54,North,0,3.1,5.1,92,0.07,,,0.73,WUHU216HW,2013-02-27 00:40:00,
2013-02-26 19:41:00,36.4,34.2,29.54,North,0,1.8,5.1,92,0.05,,,0.73,WUHU216HW,2013-02-27 00:41:00,
2013-02-26 19:44:00,36.4,34.2,29.54,NE,45,1.6,5.1,92,0.05,,,0.73,WUHU216HW,2013-02-27 00:44:00,
2013-02-26 19:45:00,36.4,34.2,29.55,NNE,23,3.4,5.1,92,0.05,,,0.73,WUHU216HW,2013-02-27 00:45:00,
2013-02-26 19:46:00,36.4,34.2,29.55,NNE,23,3.4,5.1,92,0.05,,,0.73,WUHU216HW,2013-02-27 00:46:00,
2013-02-26 19:47:00,36.4,34.2,29.55,NNE,23,3.4,5.1,92,0.05,,,0.73,WUHU216HW,2013-02-27 00:47:00,
2013-02-26 19:49:00,36.4,34.2,29.55,ESE,113,2.7,4.5,92,0.03,,,0.73,WUHU216HW,2013-02-27 00:49:00,
2013-02-26 19:51:00,36.4,34.2,29.55,NNE,23,4.7,4.7,92,0.03,,,0.73,WUHU216HW,2013-02-27 00:51:00,
2013-02-26 19:54:00,36.4,34.2,29.55,ENE,68,2.2,4.7,92,0.02,,,0.73,WUHU216HW,2013-02-27 00:54:00,
2013-02-26 19:55:00,36.4,34.2,29.54,North,0,2.5,4.7,92,0.02,,,0.73,WUHU216HW,2013-02-27 00:55:00,
2013-02-26 19:56:00,36.4,34.2,29.54,North,0,2.5,4.7,92,0.02,,,0.73,WUHU216HW,2013-02-27 00:56:00,
2013-02-26 19:57:00,36.4,34.2,29.54,NNE,23,1.3,4.7,92,0.02,,,0.73,WUHU216HW,2013-02-27 00:57:00,
2013-02-26 19:59:00,36.5,34.4,29.54,North,0,1.8,4.7,92,0.02,,,0.73,WUHU216HW,2013-02-27 00:59:00,
2013-02-26 20:01:00,36.5,34.4,29.54,NNE,23,2.7,4.0,92,0.02,,,0.73,WUHU216HW,2013-02-27 01:01:00,
2013-02-26 20:02:00,36.5,34.4,29.54,North,0,2.2,3.1,92,0.01,,,0.73,WUHU216HW,2013-02-27 01:02:00,
2013-02-26 20:03:00,36.5,34.4,29.54,North,0,3.8,3.8,92,0.01,,,0.73,WUHU216HW,2013-02-27 01:03:00,
2013-02-26 20:04:00,36.5,34.4,29.53,North,0,2.9,3.8,92,0.01,,,0.73,WUHU216HW,2013-02-27 01:04:00,
2013-02-26 20:06:00,36.5,34.4,29.53,NE,45,1.3,3.8,92,0.01,,,0.73,WUHU216HW,2013-02-27 01:06:00,
2013-02-26 20:08:00,36.4,34.2,29.53,NNE,23,1.8,3.8,92,0.01,,,0.73,WUHU216HW,2013-02-27 01:08:00,
2013-02-26 20:09:00,36.4,34.2,29.53,North,0,1.3,3.8,92,0.01,,,0.73,WUHU216HW,2013-02-27 01:09:00,
2013-02-26 20:12:00,36.4,34.2,29.53,North,0,2.9,3.8,92,0.01,,,0.73,WUHU216HW,2013-02-27 01:12:00,
2013-02-26 20:13:00,36.4,34.2,29.53,North,0,1.8,4.5,92,0.01,,,0.73,WUHU216HW,2013-02-27 01:13:00,
2013-02-26 20:14:00,36.4,34.2,29.53,North,0,1.8,4.5,92,0.01,,,0.73,WUHU216HW,2013-02-27 01:14:00,
2013-02-26 20:15:00,36.4,34.2,29.52,East,90,3.4,4.5,92,0.01,,,0.73,WUHU216HW,2013-02-27 01:15:00,
2013-02-26 20:17:00,36.4,34.2,29.52,NNE,23,0.9,4.5,92,0.00,,,0.73,WUHU216HW,2013-02-27 01:17:00,
2013-02-26 20:18:00,36.4,34.2,29.52,NW,315,1.1,4.5,92,0.00,,,0.73,WUHU216HW,2013-02-27 01:18:00,
2013-02-26 20:19:00,36.4,34.2,29.51,North,0,2.0,4.5,92,0.00,,,0.73,WUHU216HW,2013-02-27 01:19:00,
2013-02-26 20:21:00,36.4,34.2,29.51,North,0,1.8,7.6,92,0.00,,,0.73,WUHU216HW,2013-02-27 01:21:00,
2013-02-26 20:22:00,36.4,34.2,29.51,NNW,338,1.8,7.6,92,0.00,,,0.73,WUHU216HW,2013-02-27 01:22:00,
2013-02-26 20:24:00,36.4,34.2,29.51,ENE,68,2.5,7.6,92,0.00,,,0.73,WUHU216HW,2013-02-27 01:24:00,
2013-02-26 20:26:00,36.4,34.2,29.51,NNE,23,7.4,7.6,92,0.00,,,0.73,WUHU216HW,2013-02-27 01:26:00,
2013-02-26 20:27:00,36.4,34.2,29.51,NE,45,3.4,7.6,92,0.00,,,0.73,WUHU216HW,2013-02-27 01:27:00,
2013-02-26 20:29:00,36.4,34.2,29.50,East,90,1.6,7.6,92,0.00,,,0.73,WUHU216HW,2013-02-27 01:29:00,
2013-02-26 20:32:00,36.4,34.2,29.51,NNE,23,5.4,7.4,92,0.00,,,0.73,WUHU216HW,2013-02-27 01:32:00,
2013-02-26 20:34:00,36.4,34.2,29.50,North,0,3.8,7.6,92,0.00,,,0.73,WUHU216HW,2013-02-27 01:34:00,
2013-02-26 20:38:00,36.4,34.2,29.50,NNE,23,1.8,7.6,92,0.00,,,0.73,WUHU216HW,2013-02-27 01:38:00,
2013-02-26 20:39:00,36.4,34.2,29.50,NNE,23,2.2,7.6,92,0.00,,,0.73,WUHU216HW,2013-02-27 01:39:00,
2013-02-26 20:40:00,36.4,34.2,29.50,NNE,23,2.2,7.6,92,0.00,,,0.73,WUHU216HW,2013-02-27 01:40:00,
2013-02-26 20:43:00,36.4,34.2,29.50,North,0,5.8,5.8,92,0.00,,,0.73,WUHU216HW,2013-02-27 01:43:00,
2013-02-26 20:44:00,36.4,34.2,29.50,North,0,3.4,5.8,92,0.00,,,0.73,WUHU216HW,2013-02-27 01:44:00,
2013-02-26 20:45:00,36.4,34.2,29.50,NNE,23,4.0,5.8,92,0.00,,,0.73,WUHU216HW,2013-02-27 01:45:00,
2013-02-26 20:49:00,36.5,34.4,29.51,North,0,1.8,5.8,92,0.00,,,0.73,WUHU216HW,2013-02-27 01:49:00,
2013-02-26 20:50:00,36.5,34.4,29.50,NNE,23,1.1,5.8,92,0.00,,,0.73,WUHU216HW,2013-02-27 01:50:00,
2013-02-26 20:51:00,36.5,34.4,29.50,NE,45,9.8,9.8,92,0.00,,,0.73,WUHU216HW,2013-02-27 01:51:00,
2013-02-26 20:54:00,36.7,34.6,29.49,NNW,338,1.3,9.8,92,0.00,,,0.73,WUHU216HW,2013-02-27 01:54:00,
2013-02-26 20:55:00,36.7,34.6,29.49,NNW,338,1.3,9.8,92,0.00,,,0.73,WUHU216HW,2013-02-27 01:55:00,
2013-02-26 20:56:00,36.7,34.6,29.49,NE,45,3.8,9.8,92,0.00,,,0.73,WUHU216HW,2013-02-27 01:56:00,
2013-02-26 21:00:00,36.7,34.6,29.50,NE,45,6.3,9.8,92,0.00,,,0.73,WUHU216HW,2013-02-27 02:00:00,
2013-02-26 21:01:00,36.9,34.7,29.50,North,0,1.6,9.2,92,0.00,,,0.73,WUHU216HW,2013-02-27 02:01:00,
2013-02-26 21:06:00,36.9,34.7,29.50,NNE,23,4.0,9.2,92,0.00,,,0.73,WUHU216HW,2013-02-27 02:06:00,
2013-02-26 21:11:00,36.9,34.7,29.50,NNE,23,4.5,6.5,92,0.00,,,0.73,WUHU216HW,2013-02-27 02:11:00,
2013-02-26 21:12:00,36.9,34.7,29.50,NNE,23,4.5,6.5,92,0.00,,,0.73,WUHU216HW,2013-02-27 02:12:00,
2013-02-26 21:13:00,36.9,34.7,29.50,North,0,4.3,6.5,92,0.00,,,0.73,WUHU216HW,2013-02-27 02:13:00,
2013-02-26 21:17:00,37.1,34.9,29.50,NE,45,2.2,5.1,92,0.01,,,0.73,WUHU216HW,2013-02-27 02:17:00,
2013-02-26 21:18:00,37.1,35.2,29.50,NNE,23,3.4,5.1,93,0.01,,,0.73,WUHU216HW,2013-02-27 02:18:00,
2013-02-26 21:19:00,37.1,34.9,29.50,NNE,23,0.9,5.1,92,0.01,,,0.73,WUHU216HW,2013-02-27 02:19:00,
2013-02-26 21:23:00,37.1,34.9,29.49,North,0,3.1,6.3,92,0.01,,,0.73,WUHU216HW,2013-02-27 02:23:00,
2013-02-26 21:24:00,37.1,34.9,29.49,NNW,338,2.7,6.3,92,0.01,,,0.73,WUHU216HW,2013-02-27 02:24:00,
2013-02-26 21:25:00,37.1,34.9,29.49,North,0,1.8,6.5,92,0.01,,,0.73,WUHU216HW,2013-02-27 02:25:00,
2013-02-26 21:28:00,37.1,35.2,29.49,North,0,1.6,6.5,93,0.01,,,0.73,WUHU216HW,2013-02-27 02:28:00,
2013-02-26 21:29:00,37.1,35.2,29.49,North,0,1.6,6.5,93,0.01,,,0.73,WUHU216HW,2013-02-27 02:29:00,
2013-02-26 21:30:00,37.1,35.2,29.49,North,0,5.1,6.5,93,0.01,,,0.73,WUHU216HW,2013-02-27 02:30:00,
2013-02-26 21:34:00,37.3,35.4,29.49,North,0,5.1,5.1,93,0.01,,,0.73,WUHU216HW,2013-02-27 02:34:00,
2013-02-26 21:35:00,37.3,35.4,29.49,North,0,5.1,5.1,93,0.01,,,0.73,WUHU216HW,2013-02-27 02:35:00,
2013-02-26 21:36:00,37.3,35.4,29.49,NE,45,1.1,5.1,93,0.01,,,0.73,WUHU216HW,2013-02-27 02:36:00,
2013-02-26 21:40:00,37.3,35.4,29.49,NNW,338,1.8,5.1,93,0.01,,,0.73,WUHU216HW,2013-02-27 02:40:00,
2013-02-26 21:41:00,37.1,35.2,29.49,NW,315,1.6,5.1,93,0.01,,,0.73,WUHU216HW,2013-02-27 02:41:00,
2013-02-26 21:42:00,37.3,35.1,29.49,NW,315,0.9,5.1,92,0.01,,,0.73,WUHU216HW,2013-02-27 02:42:00,
2013-02-26 21:46:00,37.3,35.4,29.49,NW,315,2.2,3.4,93,0.01,,,0.73,WUHU216HW,2013-02-27 02:46:00,
2013-02-26 21:47:00,37.3,35.4,29.49,NNE,23,1.8,3.4,93,0.01,,,0.73,WUHU216HW,2013-02-27 02:47:00,
2013-02-26 21:51:00,37.1,35.2,29.49,NNW,338,1.3,3.4,93,0.01,,,0.73,WUHU216HW,2013-02-27 02:51:00,
2013-02-26 21:53:00,37.1,35.2,29.49,NNW,338,3.1,3.4,93,0.01,,,0.73,WUHU216HW,2013-02-27 02:53:00,
2013-02-26 21:56:00,37.1,35.2,29.49,NNE,23,2.0,3.4,93,0.01,,,0.73,WUHU216HW,2013-02-27 02:56:00,
2013-02-26 21:57:00,37.1,35.2,29.49,NNE,23,2.0,3.4,93,0.01,,,0.73,WUHU216HW,2013-02-27 02:57:00,
2013-02-26 21:58:00,37.1,35.2,29.49,NNE,23,1.6,3.4,93,0.01,,,0.73,WUHU216HW,2013-02-27 02:58:00,
2013-02-26 22:02:00,37.1,35.2,29.49,North,0,3.4,3.4,93,0.01,,,0.73,WUHU216HW,2013-02-27 03:02:00,
2013-02-26 22:03:00,37.1,35.2,29.49,NNE,23,2.9,3.4,93,0.01,,,0.73,WUHU216HW,2013-02-27 03:03:00,
2013-02-26 22:07:00,37.1,35.2,29.48,North,0,3.4,4.7,93,0.01,,,0.73,WUHU216HW,2013-02-27 03:07:00,
2013-02-26 22:08:00,37.1,35.2,29.48,North,0,3.4,4.7,93,0.01,,,0.73,WUHU216HW,2013-02-27 03:08:00,
2013-02-26 22:09:00,37.1,35.2,29.49,NNW,338,1.8,4.7,93,0.01,,,0.73,WUHU216HW,2013-02-27 03:09:00,
2013-02-26 22:13:00,37.3,35.4,29.49,NNW,338,1.8,4.7,93,0.00,,,0.73,WUHU216HW,2013-02-27 03:13:00,
2013-02-26 22:15:00,37.3,35.4,29.49,North,0,1.8,4.7,93,0.00,,,0.73,WUHU216HW,2013-02-27 03:15:00,
2013-02-26 22:18:00,37.3,35.4,29.49,NNW,338,1.8,2.9,93,0.00,,,0.73,WUHU216HW,2013-02-27 03:18:00,
2013-02-26 22:19:00,37.3,35.4,29.49,NNW,338,1.8,2.9,93,0.00,,,0.73,WUHU216HW,2013-02-27 03:19:00,
2013-02-26 22:20:00,37.3,35.4,29.49,NW,315,2.7,2.9,93,0.00,,,0.73,WUHU216HW,2013-02-27 03:20:00,
2013-02-26 22:21:00,37.4,35.6,29.48,North,0,2.5,2.7,93,0.00,,,0.73,WUHU216HW,2013-02-27 03:21:00,
2013-02-26 22:24:00,37.4,35.6,29.48,NNW,338,0.4,2.7,93,0.00,,,0.73,WUHU216HW,2013-02-27 03:24:00,
2013-02-26 22:25:00,37.4,35.6,29.48,North,0,1.1,2.7,93,0.00,,,0.73,WUHU216HW,2013-02-27 03:25:00,
2013-02-26 22:27:00,37.4,35.6,29.48,NNE,23,1.6,2.7,93,0.00,,,0.73,WUHU216HW,2013-02-27 03:27:00,
2013-02-26 22:29:00,37.4,35.6,29.48,NNE,23,3.4,3.4,93,0.00,,,0.73,WUHU216HW,2013-02-27 03:29:00,
2013-02-26 22:30:00,37.4,35.6,29.48,NNE,23,3.4,3.4,93,0.00,,,0.73,WUHU216HW,2013-02-27 03:30:00,
2013-02-26 22:32:00,37.4,35.6,29.48,NNE,23,2.0,3.4,93,0.00,,,0.73,WUHU216HW,2013-02-27 03:32:00,
2013-02-26 22:34:00,37.3,35.4,29.47,North,0,0.9,3.4,93,0.00,,,0.73,WUHU216HW,2013-02-27 03:34:00,
2013-02-26 22:35:00,37.3,35.4,29.47,North,0,0.9,3.4,93,0.00,,,0.73,WUHU216HW,2013-02-27 03:35:00,
2013-02-26 22:37:00,37.4,35.6,29.48,NNE,23,1.8,3.4,93,0.00,,,0.73,WUHU216HW,2013-02-27 03:37:00,
2013-02-26 22:39:00,37.4,35.6,29.48,NNE,23,1.8,3.4,93,0.01,,,0.73,WUHU216HW,2013-02-27 03:39:00,
2013-02-26 22:41:00,37.4,35.6,29.48,East,90,2.7,3.4,93,0.01,,,0.73,WUHU216HW,2013-02-27 03:41:00,
2013-02-26 22:42:00,37.4,35.6,29.48,East,90,2.7,3.4,93,0.01,,,0.73,WUHU216HW,2013-02-27 03:42:00,
2013-02-26 22:45:00,37.4,35.6,29.47,NE,45,4.3,4.3,93,0.01,,,0.73,WUHU216HW,2013-02-27 03:45:00,
2013-02-26 22:47:00,37.4,35.6,29.48,North,0,1.8,4.3,93,0.01,,,0.73,WUHU216HW,2013-02-27 03:47:00,
2013-02-26 22:48:00,37.4,35.6,29.48,North,0,4.7,4.7,93,0.01,,,0.73,WUHU216HW,2013-02-27 03:48:00,
2013-02-26 22:50:00,37.6,35.7,29.48,North,0,3.6,4.7,93,0.01,,,0.73,WUHU216HW,2013-02-27 03:50:00,
2013-02-26 22:52:00,37.6,35.7,29.48,NE,45,1.8,4.7,93,0.01,,,0.73,WUHU216HW,2013-02-27 03:52:00,
2013-02-26 22:53:00,37.6,35.7,29.48,NE,45,1.8,4.7,93,0.01,,,0.73,WUHU216HW,2013-02-27 03:53:00,
2013-02-26 22:55:00,37.6,35.7,29.48,NNE,23,3.1,4.7,93,0.01,,,0.73,WUHU216HW,2013-02-27 03:55:00,
2013-02-26 22:57:00,37.6,35.7,29.48,NNE,23,2.0,3.6,93,0.01,,,0.73,WUHU216HW,2013-02-27 03:57:00,
2013-02-26 22:58:00,37.6,35.7,29.48,NNE,23,3.8,3.8,93,0.01,,,0.73,WUHU216HW,2013-02-27 03:58:00,
2013-02-26 22:59:00,37.6,35.7,29.48,NNE,23,3.8,3.8,93,0.01,,,0.73,WUHU216HW,2013-02-27 03:59:00,
2013-02-26 23:01:00,37.6,35.7,29.48,NNE,23,2.5,3.8,93,0.01,,,0.73,WUHU216HW,2013-02-27 04:01:00,
2013-02-26 23:03:00,37.6,35.7,29.48,NNW,338,1.1,3.8,93,0.01,,,0.73,WUHU216HW,2013-02-27 04:03:00,
2013-02-26 23:04:00,37.6,35.7,29.48,NNE,23,1.1,3.8,93,0.01,,,0.73,WUHU216HW,2013-02-27 04:04:00,
2013-02-26 23:06:00,37.6,35.7,29.47,NNW,338,3.6,3.8,93,0.01,,,0.73,WUHU216HW,2013-02-27 04:06:00,
2013-02-26 23:09:00,37.6,35.7,29.47,NE,45,3.4,3.6,93,0.01,,,0.73,WUHU216HW,2013-02-27 04:09:00,
2013-02-26 23:11:00,37.6,35.7,29.47,North,0,1.3,3.6,93,0.01,,,0.73,WUHU216HW,2013-02-27 04:11:00,
2013-02-26 23:12:00,37.6,35.7,29.47,NNE,23,0.9,3.6,93,0.01,,,0.73,WUHU216HW,2013-02-27 04:12:00,
2013-02-26 23:15:00,37.8,35.9,29.47,NNE,23,2.2,3.6,93,0.01,,,0.73,WUHU216HW,2013-02-27 04:15:00,
2013-02-26 23:17:00,37.8,35.9,29.47,North,0,1.8,3.4,93,0.01,,,0.73,WUHU216HW,2013-02-27 04:17:00,
2013-02-26 23:19:00,37.8,35.9,29.47,ENE,68,1.1,3.4,93,0.01,,,0.73,WUHU216HW,2013-02-27 04:19:00,
2013-02-26 23:20:00,37.8,35.9,29.47,WSW,248,1.1,3.4,93,0.01,,,0.73,WUHU216HW,2013-02-27 04:20:00,
2013-02-26 23:21:00,37.8,35.9,29.47,NE,45,0.7,3.4,93,0.01,,,0.73,WUHU216HW,2013-02-27 04:21:00,
2013-02-26 23:23:00,37.8,35.9,29.47,NNW,338,1.8,3.4,93,0.01,,,0.73,WUHU216HW,2013-02-27 04:23:00,
2013-02-26 23:24:00,37.8,35.9,29.47,NNW,338,1.8,3.4,93,0.01,,,0.73,WUHU216HW,2013-02-27 04:24:00,
2013-02-26 23:25:00,37.8,35.9,29.47,NE,45,0.4,3.4,93,0.01,,,0.73,WUHU216HW,2013-02-27 04:25:00,
2013-02-26 23:27:00,37.8,35.9,29.46,NNE,23,1.3,3.4,93,0.01,,,0.73,WUHU216HW,2013-02-27 04:27:00,
2013-02-26 23:29:00,37.8,35.9,29.46,NNE,23,2.0,3.4,93,0.01,,,0.73,WUHU216HW,2013-02-27 04:29:00,
2013-02-26 23:30:00,37.8,35.9,29.46,North,0,3.4,3.4,93,0.01,,,0.73,WUHU216HW,2013-02-27 04:30:00,
2013-02-26 23:31:00,37.8,35.9,29.46,NE,45,1.6,3.4,93,0.01,,,0.73,WUHU216HW,2013-02-27 04:31:00,
2013-02-26 23:32:00,37.8,35.9,29.46,NNW,338,0.4,3.4,93,0.01,,,0.73,WUHU216HW,2013-02-27 04:32:00,
2013-02-26 23:34:00,37.8,35.9,29.46,North,0,2.7,3.4,93,0.01,,,0.73,WUHU216HW,2013-02-27 04:34:00,
2013-02-26 23:35:00,37.8,35.9,29.46,NNE,23,0.9,3.4,93,0.01,,,0.73,WUHU216HW,2013-02-27 04:35:00,
2013-02-26 23:37:00,37.8,35.9,29.46,North,0,1.1,3.4,93,0.00,,,0.73,WUHU216HW,2013-02-27 04:37:00,
2013-02-26 23:38:00,37.8,35.9,29.46,North,0,1.1,3.4,93,0.00,,,0.73,WUHU216HW,2013-02-27 04:38:00,
2013-02-26 23:39:00,37.8,35.9,29.46,NE,45,1.3,3.4,93,0.00,,,0.73,WUHU216HW,2013-02-27 04:39:00,
2013-02-26 23:41:00,37.8,35.9,29.46,NE,45,2.5,2.7,93,0.00,,,0.73,WUHU216HW,2013-02-27 04:41:00,
2013-02-26 23:42:00,37.8,35.9,29.46,NNW,338,0.9,2.7,93,0.00,,,0.73,WUHU216HW,2013-02-27 04:42:00,
2013-02-26 23:43:00,37.8,35.9,29.46,ENE,68,2.9,2.9,93,0.00,,,0.73,WUHU216HW,2013-02-27 04:43:00,
2013-02-26 23:44:00,37.8,35.9,29.46,NNE,23,3.4,3.4,93,0.00,,,0.73,WUHU216HW,2013-02-27 04:44:00,
2013-02-26 23:47:00,37.8,35.9,29.46,NNW,338,1.8,3.6,93,0.00,,,0.73,WUHU216HW,2013-02-27 04:47:00,
2013-02-26 23:48:00,37.8,35.9,29.46,NNE,23,1.8,3.6,93,0.00,,,0.73,WUHU216HW,2013-02-27 04:48:00,
2013-02-26 23:49:00,37.8,35.9,29.46,NNE,23,2.2,3.6,93,0.00,,,0.73,WUHU216HW,2013-02-27 04:49:00,
2013-02-26 23:50:00,37.8,35.9,29.46,NNE,23,2.9,3.6,93,0.00,,,0.73,WUHU216HW,2013-02-27 04:50:00,
2013-02-26 23:52:00,37.8,35.9,29.46,NNE,23,2.9,3.6,93,0.00,,,0.73,WUHU216HW,2013-02-27 04:52:00,
2013-02-26 23:54:00,37.8,35.9,29.45,North,0,2.0,3.6,93,0.00,,,0.73,WUHU216HW,2013-02-27 04:54:00,
2013-02-26 23:55:00,37.8,35.9,29.45,North,0,1.1,3.6,93,0.00,,,0.73,WUHU216HW,2013-02-27 04:55:00,
2013-02-26 23:57:00,37.8,35.9,29.45,NNE,23,1.3,3.4,93,0.00,,,0.73,WUHU216HW,2013-02-27 04:57:00,
2013-02-26 23:59:00,37.8,35.9,29.45,North,0,2.7,3.4,93,0.00,,,0.73,WUHU216HW,2013-02-27 04:59:00,